Darstellungsparameter: Aktuell verwendete Einstellungen:
Skalierung der Graphiken ... ?
xyx+y,   Skalierungsfaktor:      Skalierung: Modus: x, Faktor: 1
Darstellungszeitraum ... ?
Vom - - bis: - -   Zeitraum: 27.05.2019 - 02.06.2019
Min/Max/Avg-Anzeige ... ?
Zeige MMA aktuell
Zeige MMA Monat
Zeige MMA alles
Zeige --A aktuell
Zeige --A Monat
Zeige --A alles
Keine MMA-Anzeige
MMA:
Keine MMA-Graphiken
MMA-Basis: 27.05.2019 - 02.06.2019
Quicknavigation für Darstellung... ?
Tage:      1T, 2T, 3T, 5T -1T -2T -3T -5T +1T +2T +3T +5T
Wochen: 1W, 2W, 3W -1W -2W -3W +1W +2W +3W
Monate: 1M, 3M, 6M -1M -3M -6M +1M +3M +6M
Jahre:    1J, 3J, 5J, 10J -1J -3J -5J -10J +1J +3J +5J +10J
Nutze für die Darstellung ... ?
Originaldaten oder Mittelwerte auf ...
Stundenbasis Tagesbasis Wochenbasis
Monatsbasis Jahresbasis      Datenbasis: Original-Daten
Darstellen als:
Statistik (Auto) Statistik J:M      Darstellung:
Zur Graphik,    zurück zur Übersicht aller Sensoren.
 
Tabellarische Datenbersicht: ?
 
Sensor: Nr:Datum:Temp:Feuchte:Taupunkt:
Aussen-T/F 1 27-05-2019 00:00:00 16.4 C 78 % 12.56 C
2 27-05-2019 00:05:00 16.4 C 78 % 12.56 C
3 27-05-2019 00:10:00 16.3 C 78 % 12.46 C
4 27-05-2019 00:15:00 16.3 C 78 % 12.46 C
5 27-05-2019 00:20:00 16.3 C 79 % 12.65 C
6 27-05-2019 00:25:00 16.3 C 79 % 12.65 C
7 27-05-2019 00:30:00 16.3 C 78 % 12.46 C
8 27-05-2019 00:35:00 16.3 C 78 % 12.46 C
9 27-05-2019 00:40:00 16.3 C 79 % 12.65 C
10 27-05-2019 00:45:00 16.2 C 79 % 12.56 C
11 27-05-2019 00:50:00 16.2 C 79 % 12.56 C
12 27-05-2019 00:55:00 16.2 C 78 % 12.36 C
13 27-05-2019 01:00:00 16.1 C 79 % 12.46 C
14 27-05-2019 01:05:00 16.1 C 79 % 12.46 C
15 27-05-2019 01:10:00 16 C 79 % 12.36 C
16 27-05-2019 01:15:00 15.9 C 80 % 12.46 C
17 27-05-2019 01:20:00 15.9 C 81 % 12.65 C
18 27-05-2019 01:25:00 15.8 C 81 % 12.55 C
19 27-05-2019 01:30:00 15.8 C 81 % 12.55 C
20 27-05-2019 01:35:00 15.7 C 82 % 12.64 C
21 27-05-2019 01:40:00 15.7 C 82 % 12.64 C
22 27-05-2019 01:45:00 15.5 C 82 % 12.44 C
23 27-05-2019 01:50:00 15.3 C 82 % 12.25 C
24 27-05-2019 01:55:00 15.2 C 82 % 12.15 C
25 27-05-2019 02:00:00 15 C 83 % 12.14 C
Sensor: Nr:Datum:Temp:Feuchte:Taupunkt:
Aussen-T/F 26 27-05-2019 02:05:00 14.8 C 83 % 11.94 C
27 27-05-2019 02:10:00 14.7 C 83 % 11.85 C
28 27-05-2019 02:15:00 14.7 C 84 % 12.03 C
29 27-05-2019 02:20:00 14.6 C 84 % 11.93 C
30 27-05-2019 02:25:00 14.5 C 84 % 11.83 C
31 27-05-2019 02:30:00 14.7 C 83 % 11.85 C
32 27-05-2019 02:35:00 14.7 C 83 % 11.85 C
33 27-05-2019 02:40:00 14.7 C 83 % 11.85 C
34 27-05-2019 02:45:00 14.7 C 83 % 11.85 C
35 27-05-2019 02:50:00 14.7 C 83 % 11.85 C
36 27-05-2019 02:55:00 14.6 C 83 % 11.75 C
37 27-05-2019 03:00:00 14.6 C 83 % 11.75 C
38 27-05-2019 03:05:00 14.5 C 83 % 11.65 C
39 27-05-2019 03:10:00 14.4 C 83 % 11.55 C
40 27-05-2019 03:15:00 14.3 C 84 % 11.64 C
41 27-05-2019 03:20:00 14.2 C 84 % 11.54 C
42 27-05-2019 03:25:00 14.1 C 84 % 11.44 C
43 27-05-2019 03:30:00 14 C 85 % 11.52 C
44 27-05-2019 03:35:00 13.9 C 85 % 11.42 C
45 27-05-2019 03:40:00 13.9 C 85 % 11.42 C
46 27-05-2019 03:45:00 13.8 C 85 % 11.32 C
47 27-05-2019 03:50:00 13.8 C 86 % 11.5 C
48 27-05-2019 03:55:00 13.7 C 86 % 11.4 C
49 27-05-2019 04:00:00 13.7 C 86 % 11.4 C
50 27-05-2019 04:05:00 13.7 C 87 % 11.58 C
Sensor: Nr:Datum:Temp:Feuchte:Taupunkt:
Aussen-T/F 51 27-05-2019 04:10:00 13.7 C 87 % 11.58 C
52 27-05-2019 04:15:00 13.7 C 87 % 11.58 C
53 27-05-2019 04:20:00 13.7 C 88 % 11.75 C
54 27-05-2019 04:25:00 13.7 C 88 % 11.75 C
55 27-05-2019 04:30:00 13.7 C 88 % 11.75 C
56 27-05-2019 04:35:00 13.8 C 88 % 11.85 C
57 27-05-2019 04:40:00 13.9 C 88 % 11.95 C
58 27-05-2019 04:45:00 14.1 C 87 % 11.97 C
59 27-05-2019 04:50:00 14.2 C 87 % 12.07 C
60 27-05-2019 04:55:00 14.3 C 87 % 12.17 C
61 27-05-2019 05:00:00 14.3 C 88 % 12.34 C
62 27-05-2019 05:05:00 14.3 C 88 % 12.34 C
63 27-05-2019 05:10:00 14.3 C 89 % 12.51 C
64 27-05-2019 05:15:00 14.3 C 89 % 12.51 C
65 27-05-2019 05:20:00 14.2 C 90 % 12.58 C
66 27-05-2019 05:25:00 14.2 C 90 % 12.58 C
67 27-05-2019 05:30:00 14.2 C 90 % 12.58 C
68 27-05-2019 05:35:00 14.1 C 91 % 12.65 C
69 27-05-2019 05:40:00 14.1 C 91 % 12.65 C
70 27-05-2019 05:45:00 14.1 C 91 % 12.65 C
71 27-05-2019 05:50:00 14.1 C 91 % 12.65 C
72 27-05-2019 05:55:00 14.1 C 92 % 12.82 C
73 27-05-2019 06:00:00 14.1 C 92 % 12.82 C
74 27-05-2019 06:05:00 14 C 92 % 12.72 C
75 27-05-2019 06:10:00 14 C 92 % 12.72 C
Sensor: Nr:Datum:Temp:Feuchte:Taupunkt:
Aussen-T/F 76 27-05-2019 06:15:00 14 C 93 % 12.89 C
77 27-05-2019 06:20:00 13.9 C 93 % 12.79 C
78 27-05-2019 06:25:00 13.9 C 93 % 12.79 C
79 27-05-2019 06:30:00 13.9 C 93 % 12.79 C
80 27-05-2019 06:35:00 13.9 C 93 % 12.79 C
81 27-05-2019 06:40:00 13.9 C 93 % 12.79 C
82 27-05-2019 06:45:00 13.9 C 93 % 12.79 C
83 27-05-2019 06:50:00 13.9 C 93 % 12.79 C
84 27-05-2019 06:55:00 13.9 C 94 % 12.95 C
85 27-05-2019 07:00:00 14 C 94 % 13.05 C
86 27-05-2019 07:05:00 14.1 C 94 % 13.15 C
87 27-05-2019 07:10:00 14.1 C 94 % 13.15 C
88 27-05-2019 07:15:00 14.1 C 94 % 13.15 C
89 27-05-2019 07:20:00 14.1 C 94 % 13.15 C
90 27-05-2019 07:25:00 14.2 C 94 % 13.25 C
91 27-05-2019 07:30:00 14.2 C 94 % 13.25 C
92 27-05-2019 07:35:00 14.2 C 94 % 13.25 C
93 27-05-2019 07:40:00 14.3 C 94 % 13.35 C
94 27-05-2019 07:45:00 14.4 C 94 % 13.45 C
95 27-05-2019 07:50:00 14.4 C 94 % 13.45 C
96 27-05-2019 07:55:00 14.4 C 94 % 13.45 C
97 27-05-2019 08:00:00 14.5 C 94 % 13.55 C
98 27-05-2019 08:05:00 14.6 C 94 % 13.65 C
99 27-05-2019 08:10:00 14.6 C 94 % 13.65 C
100 27-05-2019 08:15:00 14.7 C 93 % 13.58 C
Sensor: Nr:Datum:Temp:Feuchte:Taupunkt:
Aussen-T/F 101 27-05-2019 08:20:00 14.8 C 93 % 13.68 C
102 27-05-2019 08:25:00 14.8 C 93 % 13.68 C
103 27-05-2019 08:30:00 15 C 93 % 13.88 C
104 27-05-2019 08:35:00 15.1 C 93 % 13.98 C
105 27-05-2019 08:40:00 15.2 C 93 % 14.08 C
106 27-05-2019 08:45:00 15.3 C 93 % 14.18 C
107 27-05-2019 08:50:00 15.3 C 93 % 14.18 C
108 27-05-2019 08:55:00 15.4 C 93 % 14.27 C
109 27-05-2019 09:00:00 15.4 C 93 % 14.27 C
110 27-05-2019 09:05:00 15.4 C 93 % 14.27 C
111 27-05-2019 09:10:00 15.4 C 92 % 14.11 C
112 27-05-2019 09:15:00 15.5 C 93 % 14.37 C
113 27-05-2019 09:20:00 15.6 C 93 % 14.47 C
114 27-05-2019 09:25:00 15.7 C 93 % 14.57 C
115 27-05-2019 09:30:00 15.8 C 93 % 14.67 C
116 27-05-2019 09:35:00 15.8 C 93 % 14.67 C
117 27-05-2019 09:40:00 15.7 C 92 % 14.4 C
118 27-05-2019 09:45:00 15.7 C 92 % 14.4 C
119 27-05-2019 09:50:00 15.7 C 92 % 14.4 C
120 27-05-2019 09:55:00 15.7 C 93 % 14.57 C
121 27-05-2019 10:00:00 15.8 C 92 % 14.5 C
122 27-05-2019 10:05:00 15.8 C 92 % 14.5 C
123 27-05-2019 10:10:00 15.9 C 92 % 14.6 C
124 27-05-2019 10:15:00 15.9 C 91 % 14.43 C
125 27-05-2019 10:20:00 15.8 C 91 % 14.33 C
Sensor: Nr:Datum:Temp:Feuchte:Taupunkt:
Aussen-T/F 126 27-05-2019 10:25:00 15.8 C 91 % 14.33 C
127 27-05-2019 10:30:00 15.8 C 91 % 14.33 C
128 27-05-2019 10:35:00 15.9 C 92 % 14.6 C
129 27-05-2019 10:40:00 16.1 C 92 % 14.8 C
130 27-05-2019 10:45:00 16.1 C 91 % 14.63 C
131 27-05-2019 10:50:00 16.1 C 91 % 14.63 C
132 27-05-2019 10:55:00 16.1 C 91 % 14.63 C
133 27-05-2019 11:00:00 16.1 C 91 % 14.63 C
134 27-05-2019 11:05:00 16.1 C 92 % 14.8 C
135 27-05-2019 11:10:00 16 C 92 % 14.7 C
136 27-05-2019 11:15:00 15.8 C 91 % 14.33 C
137 27-05-2019 11:20:00 15.3 C 90 % 13.67 C
138 27-05-2019 11:25:00 15 C 90 % 13.37 C
139 27-05-2019 11:30:00 14.8 C 91 % 13.35 C
140 27-05-2019 11:35:00 14.8 C 91 % 13.35 C
141 27-05-2019 11:40:00 14.7 C 92 % 13.41 C
142 27-05-2019 11:45:00 14.7 C 92 % 13.41 C
143 27-05-2019 11:50:00 14.8 C 93 % 13.68 C
144 27-05-2019 11:55:00 14.9 C 94 % 13.94 C
145 27-05-2019 12:00:00 15.1 C 94 % 14.14 C
146 27-05-2019 12:05:00 15.2 C 94 % 14.24 C
147 27-05-2019 12:10:00 15.1 C 93 % 13.98 C
148 27-05-2019 12:15:00 15.1 C 93 % 13.98 C
149 27-05-2019 12:20:00 15.1 C 93 % 13.98 C
150 27-05-2019 12:25:00 15.1 C 93 % 13.98 C
Sensor: Nr:Datum:Temp:Feuchte:Taupunkt:
Aussen-T/F 151 27-05-2019 12:30:00 15 C 93 % 13.88 C
152 27-05-2019 12:35:00 14.9 C 93 % 13.78 C
153 27-05-2019 12:40:00 14.9 C 93 % 13.78 C
154 27-05-2019 12:45:00 14.9 C 93 % 13.78 C
155 27-05-2019 12:50:00 14.9 C 93 % 13.78 C
156 27-05-2019 12:55:00 14.8 C 93 % 13.68 C
157 27-05-2019 13:00:00 14.6 C 92 % 13.32 C
158 27-05-2019 13:05:00 14.4 C 93 % 13.28 C
159 27-05-2019 13:10:00 14.4 C 93 % 13.28 C
160 27-05-2019 13:15:00 14.4 C 93 % 13.28 C
161 27-05-2019 13:20:00 14.3 C 93 % 13.18 C
162 27-05-2019 13:25:00 14.3 C 94 % 13.35 C
163 27-05-2019 13:30:00 14.3 C 94 % 13.35 C
164 27-05-2019 13:35:00 14.3 C 94 % 13.35 C
165 27-05-2019 13:40:00 14.4 C 94 % 13.45 C
166 27-05-2019 13:45:00 14.5 C 94 % 13.55 C
167 27-05-2019 13:50:00 14.4 C 94 % 13.45 C
168 27-05-2019 13:55:00 14.4 C 94 % 13.45 C
169 27-05-2019 14:00:00 14.4 C 94 % 13.45 C
170 27-05-2019 14:05:00 14.5 C 94 % 13.55 C
171 27-05-2019 14:10:00 14.6 C 95 % 13.81 C
172 27-05-2019 14:15:00 14.6 C 94 % 13.65 C
173 27-05-2019 14:20:00 14.4 C 93 % 13.28 C
174 27-05-2019 14:25:00 14.3 C 94 % 13.35 C
175 27-05-2019 14:30:00 14.4 C 94 % 13.45 C
Sensor: Nr:Datum:Temp:Feuchte:Taupunkt:
Aussen-T/F 176 27-05-2019 14:35:00 14.5 C 95 % 13.71 C
177 27-05-2019 14:40:00 14.6 C 95 % 13.81 C
178 27-05-2019 14:45:00 14.7 C 95 % 13.91 C
179 27-05-2019 14:50:00 14.7 C 95 % 13.91 C
180 27-05-2019 14:55:00 14.7 C 94 % 13.74 C
181 27-05-2019 15:00:00 14.6 C 94 % 13.65 C
182 27-05-2019 15:05:00 14.4 C 94 % 13.45 C
183 27-05-2019 15:10:00 14.4 C 94 % 13.45 C
184 27-05-2019 15:15:00 14.5 C 94 % 13.55 C
185 27-05-2019 15:20:00 14.7 C 94 % 13.74 C
186 27-05-2019 15:25:00 14.7 C 94 % 13.74 C
187 27-05-2019 15:30:00 14.9 C 95 % 14.11 C
188 27-05-2019 15:35:00 15.1 C 95 % 14.31 C
189 27-05-2019 15:40:00 15.2 C 94 % 14.24 C
190 27-05-2019 15:45:00 15.2 C 93 % 14.08 C
191 27-05-2019 15:50:00 15.1 C 93 % 13.98 C
192 27-05-2019 15:55:00 15.1 C 93 % 13.98 C
193 27-05-2019 16:00:00 15.1 C 93 % 13.98 C
194 27-05-2019 16:05:00 15.2 C 93 % 14.08 C
195 27-05-2019 16:10:00 15.2 C 94 % 14.24 C
196 27-05-2019 16:15:00 15.3 C 94 % 14.34 C
197 27-05-2019 16:20:00 15.4 C 94 % 14.44 C
198 27-05-2019 16:25:00 15.5 C 94 % 14.54 C
199 27-05-2019 16:30:00 15.6 C 94 % 14.64 C
200 27-05-2019 16:35:00 15.7 C 95 % 14.9 C
Sensor: Nr:Datum:Temp:Feuchte:Taupunkt:
Aussen-T/F 201 27-05-2019 16:40:00 15.6 C 94 % 14.64 C
202 27-05-2019 16:45:00 15.7 C 94 % 14.74 C
203 27-05-2019 16:50:00 15.7 C 94 % 14.74 C
204 27-05-2019 16:55:00 15.7 C 94 % 14.74 C
205 27-05-2019 17:00:00 15.7 C 94 % 14.74 C
206 27-05-2019 17:05:00 15.7 C 93 % 14.57 C
207 27-05-2019 17:10:00 15.7 C 93 % 14.57 C
208 27-05-2019 17:15:00 15.7 C 93 % 14.57 C
209 27-05-2019 17:20:00 15.9 C 93 % 14.77 C
210 27-05-2019 17:25:00 16.1 C 93 % 14.97 C
211 27-05-2019 17:30:00 16.2 C 92 % 14.9 C
212 27-05-2019 17:35:00 16.3 C 92 % 15 C
213 27-05-2019 17:40:00 16.4 C 92 % 15.1 C
214 27-05-2019 17:45:00 16.4 C 92 % 15.1 C
215 27-05-2019 17:50:00 16.4 C 92 % 15.1 C
216 27-05-2019 17:55:00 16.4 C 92 % 15.1 C
217 27-05-2019 18:00:00 16.3 C 92 % 15 C
218 27-05-2019 18:05:00 16.2 C 92 % 14.9 C
219 27-05-2019 18:10:00 16.2 C 92 % 14.9 C
220 27-05-2019 18:15:00 16.2 C 93 % 15.07 C
221 27-05-2019 18:20:00 16.2 C 93 % 15.07 C
222 27-05-2019 18:25:00 16.2 C 93 % 15.07 C
223 27-05-2019 18:30:00 16.2 C 93 % 15.07 C
224 27-05-2019 18:35:00 16.2 C 93 % 15.07 C
225 27-05-2019 18:40:00 16.3 C 94 % 15.33 C
Sensor: Nr:Datum:Temp:Feuchte:Taupunkt:
Aussen-T/F 226 27-05-2019 18:45:00 16.4 C 94 % 15.43 C
227 27-05-2019 18:50:00 16.4 C 94 % 15.43 C
228 27-05-2019 18:55:00 16.5 C 94 % 15.53 C
229 27-05-2019 19:00:00 16.6 C 94 % 15.63 C
230 27-05-2019 19:05:00 16.6 C 94 % 15.63 C
231 27-05-2019 19:10:00 16.7 C 94 % 15.73 C
232 27-05-2019 19:15:00 16.8 C 94 % 15.83 C
233 27-05-2019 19:20:00 16.9 C 94 % 15.93 C
234 27-05-2019 19:25:00 16.9 C 93 % 15.76 C
235 27-05-2019 19:30:00 16.8 C 92 % 15.49 C
236 27-05-2019 19:35:00 16.7 C 92 % 15.39 C
237 27-05-2019 19:40:00 16.7 C 92 % 15.39 C
238 27-05-2019 19:45:00 16.7 C 92 % 15.39 C
239 27-05-2019 19:50:00 16.7 C 92 % 15.39 C
240 27-05-2019 19:55:00 16.7 C 92 % 15.39 C
241 27-05-2019 20:00:00 16.6 C 92 % 15.3 C
242 27-05-2019 20:05:00 16.4 C 92 % 15.1 C
243 27-05-2019 20:10:00 16.3 C 91 % 14.83 C
244 27-05-2019 20:15:00 16.1 C 91 % 14.63 C
245 27-05-2019 20:20:00 15.9 C 91 % 14.43 C
246 27-05-2019 20:25:00 15.8 C 91 % 14.33 C
247 27-05-2019 20:30:00 15.7 C 92 % 14.4 C
248 27-05-2019 20:35:00 15.5 C 91 % 14.04 C
249 27-05-2019 20:40:00 15.4 C 92 % 14.11 C
250 27-05-2019 20:45:00 15.3 C 92 % 14.01 C
Sensor: Nr:Datum:Temp:Feuchte:Taupunkt:
Aussen-T/F 251 27-05-2019 20:50:00 15.2 C 92 % 13.91 C
252 27-05-2019 20:55:00 15.2 C 92 % 13.91 C
253 27-05-2019 21:00:00 15.1 C 93 % 13.98 C
254 27-05-2019 21:05:00 15 C 93 % 13.88 C
255 27-05-2019 21:10:00 14.9 C 93 % 13.78 C
256 27-05-2019 21:15:00 14.9 C 93 % 13.78 C
257 27-05-2019 21:20:00 14.8 C 93 % 13.68 C
258 27-05-2019 21:25:00 14.8 C 93 % 13.68 C
259 27-05-2019 21:30:00 14.7 C 93 % 13.58 C
260 27-05-2019 21:35:00 14.6 C 93 % 13.48 C
261 27-05-2019 21:40:00 14.5 C 93 % 13.38 C
262 27-05-2019 21:45:00 14.4 C 94 % 13.45 C
263 27-05-2019 21:50:00 14.3 C 93 % 13.18 C
264 27-05-2019 21:55:00 14.2 C 93 % 13.08 C
265 27-05-2019 22:00:00 14.1 C 94 % 13.15 C
266 27-05-2019 22:05:00 14 C 94 % 13.05 C
267 27-05-2019 22:10:00 13.9 C 94 % 12.95 C
268 27-05-2019 22:15:00 13.9 C 94 % 12.95 C
269 27-05-2019 22:20:00 13.8 C 94 % 12.85 C
270 27-05-2019 22:25:00 13.8 C 94 % 12.85 C
271 27-05-2019 22:30:00 13.7 C 94 % 12.75 C
272 27-05-2019 22:35:00 13.7 C 94 % 12.75 C
273 27-05-2019 22:40:00 13.7 C 94 % 12.75 C
274 27-05-2019 22:45:00 13.7 C 95 % 12.91 C
275 27-05-2019 22:50:00 13.6 C 95 % 12.81 C
Sensor: Nr:Datum:Temp:Feuchte:Taupunkt:
Aussen-T/F 276 27-05-2019 22:55:00 13.6 C 95 % 12.81 C
277 27-05-2019 23:00:00 13.6 C 95 % 12.81 C
278 27-05-2019 23:05:00 13.5 C 95 % 12.72 C
279 27-05-2019 23:10:00 13.5 C 95 % 12.72 C
280 27-05-2019 23:15:00 13.5 C 95 % 12.72 C
281 27-05-2019 23:20:00 13.4 C 95 % 12.62 C
282 27-05-2019 23:25:00 13.4 C 95 % 12.62 C
283 27-05-2019 23:30:00 13.4 C 95 % 12.62 C
284 27-05-2019 23:35:00 13.4 C 95 % 12.62 C
285 27-05-2019 23:40:00 13.3 C 95 % 12.52 C
286 27-05-2019 23:45:00 13.3 C 95 % 12.52 C
287 27-05-2019 23:50:00 13.3 C 95 % 12.52 C
288 27-05-2019 23:55:00 13.2 C 95 % 12.42 C
289 28-05-2019 00:00:00 13.2 C 95 % 12.42 C
290 28-05-2019 00:05:00 13.2 C 95 % 12.42 C
291 28-05-2019 00:10:00 13.1 C 95 % 12.32 C
292 28-05-2019 00:15:00 13.1 C 95 % 12.32 C
293 28-05-2019 00:20:00 13.1 C 96 % 12.48 C
294 28-05-2019 00:25:00 13.1 C 96 % 12.48 C
295 28-05-2019 00:30:00 12.9 C 96 % 12.28 C
296 28-05-2019 00:35:00 12.9 C 96 % 12.28 C
297 28-05-2019 00:40:00 12.8 C 96 % 12.18 C
298 28-05-2019 00:45:00 12.8 C 96 % 12.18 C
299 28-05-2019 00:50:00 12.7 C 96 % 12.08 C
300 28-05-2019 00:55:00 12.7 C 96 % 12.08 C
Sensor: Nr:Datum:Temp:Feuchte:Taupunkt:
Aussen-T/F 301 28-05-2019 01:00:00 12.6 C 96 % 11.98 C
302 28-05-2019 01:05:00 12.6 C 96 % 11.98 C
303 28-05-2019 01:10:00 12.5 C 96 % 11.88 C
304 28-05-2019 01:15:00 12.5 C 96 % 11.88 C
305 28-05-2019 01:20:00 12.6 C 96 % 11.98 C
306 28-05-2019 01:25:00 12.6 C 96 % 11.98 C
307 28-05-2019 01:30:00 12.4 C 96 % 11.78 C
308 28-05-2019 01:35:00 12.3 C 96 % 11.68 C
309 28-05-2019 01:40:00 12.3 C 96 % 11.68 C
310 28-05-2019 01:45:00 12.3 C 96 % 11.68 C
311 28-05-2019 01:50:00 12.3 C 96 % 11.68 C
312 28-05-2019 01:55:00 12.4 C 96 % 11.78 C
313 28-05-2019 02:00:00 12.4 C 96 % 11.78 C
314 28-05-2019 02:05:00 12.4 C 97 % 11.94 C
315 28-05-2019 02:10:00 12.5 C 97 % 12.04 C
316 28-05-2019 02:15:00 12.5 C 97 % 12.04 C
317 28-05-2019 02:20:00 12.5 C 96 % 11.88 C
318 28-05-2019 02:25:00 12.6 C 96 % 11.98 C
319 28-05-2019 02:30:00 12.6 C 96 % 11.98 C
320 28-05-2019 02:35:00 12.6 C 97 % 12.14 C
321 28-05-2019 02:40:00 12.6 C 97 % 12.14 C
322 28-05-2019 02:45:00 12.6 C 97 % 12.14 C
323 28-05-2019 02:50:00 12.6 C 97 % 12.14 C
324 28-05-2019 02:55:00 12.7 C 97 % 12.24 C
325 28-05-2019 03:00:00 12.7 C 97 % 12.24 C
Sensor: Nr:Datum:Temp:Feuchte:Taupunkt:
Aussen-T/F 326 28-05-2019 03:05:00 12.7 C 97 % 12.24 C
327 28-05-2019 03:10:00 12.7 C 97 % 12.24 C
328 28-05-2019 03:15:00 12.7 C 97 % 12.24 C
329 28-05-2019 03:20:00 12.6 C 97 % 12.14 C
330 28-05-2019 03:25:00 12.6 C 97 % 12.14 C
331 28-05-2019 03:30:00 12.5 C 97 % 12.04 C
332 28-05-2019 03:35:00 12.3 C 96 % 11.68 C
333 28-05-2019 03:40:00 12.2 C 96 % 11.58 C
334 28-05-2019 03:45:00 12.1 C 96 % 11.48 C
335 28-05-2019 03:50:00 12 C 96 % 11.38 C
336 28-05-2019 03:55:00 11.9 C 96 % 11.28 C
337 28-05-2019 04:00:00 11.8 C 96 % 11.18 C
338 28-05-2019 04:05:00 11.7 C 96 % 11.08 C
339 28-05-2019 04:10:00 11.7 C 96 % 11.08 C
340 28-05-2019 04:15:00 11.6 C 96 % 10.98 C
341 28-05-2019 04:20:00 11.6 C 96 % 10.98 C
342 28-05-2019 04:25:00 11.5 C 96 % 10.88 C
343 28-05-2019 04:30:00 11.4 C 96 % 10.79 C
344 28-05-2019 04:35:00 11.4 C 97 % 10.94 C
345 28-05-2019 04:40:00 11.4 C 97 % 10.94 C
346 28-05-2019 04:45:00 11.4 C 97 % 10.94 C
347 28-05-2019 04:50:00 11.5 C 97 % 11.04 C
348 28-05-2019 04:55:00 11.6 C 97 % 11.14 C
349 28-05-2019 05:00:00 11.6 C 97 % 11.14 C
350 28-05-2019 05:05:00 11.7 C 97 % 11.24 C
Sensor: Nr:Datum:Temp:Feuchte:Taupunkt:
Aussen-T/F 351 28-05-2019 05:10:00 11.7 C 97 % 11.24 C
352 28-05-2019 05:15:00 11.7 C 97 % 11.24 C
353 28-05-2019 05:20:00 11.8 C 97 % 11.34 C
354 28-05-2019 05:25:00 11.8 C 97 % 11.34 C
355 28-05-2019 05:30:00 11.8 C 97 % 11.34 C
356 28-05-2019 05:35:00 11.8 C 97 % 11.34 C
357 28-05-2019 05:40:00 11.9 C 97 % 11.44 C
358 28-05-2019 05:45:00 11.9 C 97 % 11.44 C
359 28-05-2019 05:50:00 12 C 97 % 11.54 C
360 28-05-2019 05:55:00 12 C 97 % 11.54 C
361 28-05-2019 06:00:00 12.1 C 97 % 11.64 C
362 28-05-2019 06:05:00 12.1 C 97 % 11.64 C
363 28-05-2019 06:10:00 12.1 C 97 % 11.64 C
364 28-05-2019 06:15:00 12.1 C 97 % 11.64 C
365 28-05-2019 06:20:00 12.2 C 97 % 11.74 C
366 28-05-2019 06:25:00 12.2 C 97 % 11.74 C
367 28-05-2019 06:30:00 12.2 C 97 % 11.74 C
368 28-05-2019 06:35:00 12.2 C 97 % 11.74 C
369 28-05-2019 06:40:00 12.2 C 97 % 11.74 C
370 28-05-2019 06:45:00 12.2 C 97 % 11.74 C
371 28-05-2019 06:50:00 12.3 C 97 % 11.84 C
372 28-05-2019 06:55:00 12.3 C 97 % 11.84 C
373 28-05-2019 07:00:00 12.3 C 97 % 11.84 C
374 28-05-2019 07:05:00 12.3 C 97 % 11.84 C
375 28-05-2019 07:10:00 12.4 C 97 % 11.94 C
Sensor: Nr:Datum:Temp:Feuchte:Taupunkt:
Aussen-T/F 376 28-05-2019 07:15:00 12.4 C 97 % 11.94 C
377 28-05-2019 07:20:00 12.5 C 97 % 12.04 C
378 28-05-2019 07:25:00 12.5 C 97 % 12.04 C
379 28-05-2019 07:30:00 12.6 C 97 % 12.14 C
380 28-05-2019 07:35:00 12.6 C 97 % 12.14 C
381 28-05-2019 07:40:00 12.6 C 97 % 12.14 C
382 28-05-2019 07:45:00 12.6 C 97 % 12.14 C
383 28-05-2019 07:50:00 12.7 C 97 % 12.24 C
384 28-05-2019 07:55:00 12.7 C 97 % 12.24 C
385 28-05-2019 08:00:00 12.8 C 97 % 12.34 C
386 28-05-2019 08:05:00 12.8 C 97 % 12.34 C
387 28-05-2019 08:10:00 12.8 C 97 % 12.34 C
388 28-05-2019 08:15:00 12.8 C 97 % 12.34 C
389 28-05-2019 08:20:00 12.9 C 97 % 12.44 C
390 28-05-2019 08:25:00 12.8 C 97 % 12.34 C
391 28-05-2019 08:30:00 12.8 C 97 % 12.34 C
392 28-05-2019 08:35:00 12.8 C 97 % 12.34 C
393 28-05-2019 08:40:00 12.9 C 97 % 12.44 C
394 28-05-2019 08:45:00 12.9 C 97 % 12.44 C
395 28-05-2019 08:50:00 12.9 C 97 % 12.44 C
396 28-05-2019 08:55:00 12.9 C 97 % 12.44 C
397 28-05-2019 09:00:00 13 C 97 % 12.54 C
398 28-05-2019 09:05:00 13.1 C 97 % 12.63 C
399 28-05-2019 09:10:00 13.2 C 97 % 12.73 C
400 28-05-2019 09:15:00 13.3 C 97 % 12.83 C
Sensor: Nr:Datum:Temp:Feuchte:Taupunkt:
Aussen-T/F 401 28-05-2019 09:20:00 13.3 C 96 % 12.68 C
402 28-05-2019 09:25:00 13.3 C 96 % 12.68 C
403 28-05-2019 09:30:00 13.3 C 96 % 12.68 C
404 28-05-2019 09:35:00 13.4 C 95 % 12.62 C
405 28-05-2019 09:40:00 13.6 C 95 % 12.81 C
406 28-05-2019 09:45:00 13.7 C 94 % 12.75 C
407 28-05-2019 09:50:00 13.9 C 94 % 12.95 C
408 28-05-2019 09:55:00 14 C 93 % 12.89 C
409 28-05-2019 10:00:00 14.2 C 93 % 13.08 C
410 28-05-2019 10:05:00 14.4 C 92 % 13.12 C
411 28-05-2019 10:10:00 14.4 C 89 % 12.61 C
412 28-05-2019 10:15:00 14.6 C 89 % 12.81 C
413 28-05-2019 10:20:00 14.6 C 88 % 12.64 C
414 28-05-2019 10:25:00 14.7 C 87 % 12.56 C
415 28-05-2019 10:30:00 14.7 C 87 % 12.56 C
416 28-05-2019 10:35:00 14.8 C 86 % 12.48 C
417 28-05-2019 10:40:00 15 C 85 % 12.5 C
418 28-05-2019 10:45:00 15.2 C 86 % 12.88 C
419 28-05-2019 10:50:00 15.2 C 85 % 12.7 C
420 28-05-2019 10:55:00 15.1 C 83 % 12.24 C
421 28-05-2019 11:00:00 15 C 85 % 12.5 C
422 28-05-2019 11:05:00 15 C 85 % 12.5 C
423 28-05-2019 11:10:00 15.1 C 84 % 12.42 C
424 28-05-2019 11:15:00 15.1 C 82 % 12.05 C
425 28-05-2019 11:20:00 15.4 C 83 % 12.53 C
Sensor: Nr:Datum:Temp:Feuchte:Taupunkt:
Aussen-T/F 426 28-05-2019 11:25:00 15.7 C 81 % 12.45 C
427 28-05-2019 11:30:00 15.8 C 81 % 12.55 C
428 28-05-2019 11:35:00 15.9 C 79 % 12.27 C
429 28-05-2019 11:40:00 16.1 C 78 % 12.27 C
430 28-05-2019 11:45:00 16.2 C 78 % 12.36 C
431 28-05-2019 11:50:00 16.3 C 78 % 12.46 C
432 28-05-2019 11:55:00 16.2 C 76 % 11.97 C
433 28-05-2019 12:00:00 16.2 C 76 % 11.97 C
434 28-05-2019 12:05:00 16.3 C 76 % 12.07 C
435 28-05-2019 12:10:00 16.3 C 75 % 11.86 C
436 28-05-2019 12:15:00 16.3 C 74 % 11.66 C
437 28-05-2019 12:20:00 16.1 C 76 % 11.87 C
438 28-05-2019 12:25:00 15.9 C 76 % 11.68 C
439 28-05-2019 12:30:00 15.7 C 76 % 11.48 C
440 28-05-2019 12:35:00 15.7 C 73 % 10.88 C
441 28-05-2019 12:40:00 15.8 C 73 % 10.97 C
442 28-05-2019 12:45:00 15.9 C 74 % 11.28 C
443 28-05-2019 12:50:00 16.1 C 74 % 11.47 C
444 28-05-2019 12:55:00 16.3 C 74 % 11.66 C
445 28-05-2019 13:00:00 16.6 C 73 % 11.74 C
446 28-05-2019 13:05:00 16.9 C 69 % 11.18 C
447 28-05-2019 13:10:00 17.1 C 68 % 11.15 C
448 28-05-2019 13:15:00 17.1 C 67 % 10.93 C
449 28-05-2019 13:20:00 17.2 C 68 % 11.25 C
450 28-05-2019 13:25:00 17.3 C 65 % 10.66 C
Sensor: Nr:Datum:Temp:Feuchte:Taupunkt:
Aussen-T/F 451 28-05-2019 13:30:00 17.5 C 67 % 11.31 C
452 28-05-2019 13:35:00 17.7 C 66 % 11.27 C
453 28-05-2019 13:40:00 17.9 C 64 % 11 C
454 28-05-2019 13:45:00 18.3 C 63 % 11.14 C
455 28-05-2019 13:50:00 18.3 C 63 % 11.14 C
456 28-05-2019 13:55:00 18 C 64 % 11.09 C
457 28-05-2019 14:00:00 18.2 C 68 % 12.2 C
458 28-05-2019 14:05:00 18.3 C 63 % 11.14 C
459 28-05-2019 14:10:00 18.4 C 60 % 10.5 C
460 28-05-2019 14:15:00 18.6 C 61 % 10.94 C
461 28-05-2019 14:20:00 18.6 C 56 % 9.66 C
462 28-05-2019 14:25:00 18.2 C 60 % 10.31 C
463 28-05-2019 14:30:00 16.4 C 70 % 10.92 C
464 28-05-2019 14:35:00 14.3 C 73 % 9.53 C
465 28-05-2019 14:40:00 13.3 C 80 % 9.93 C
466 28-05-2019 14:45:00 12.9 C 83 % 10.09 C
467 28-05-2019 14:50:00 12.7 C 84 % 10.07 C
468 28-05-2019 14:55:00 12.6 C 86 % 10.32 C
469 28-05-2019 15:00:00 12.7 C 86 % 10.42 C
470 28-05-2019 15:05:00 12.9 C 87 % 10.79 C
471 28-05-2019 15:10:00 13.1 C 86 % 10.81 C
472 28-05-2019 15:15:00 13.3 C 86 % 11.01 C
473 28-05-2019 15:20:00 13.3 C 84 % 10.66 C
474 28-05-2019 15:25:00 13.3 C 85 % 10.83 C
475 28-05-2019 15:30:00 13.4 C 85 % 10.93 C
Sensor: Nr:Datum:Temp:Feuchte:Taupunkt:
Aussen-T/F 476 28-05-2019 15:35:00 13.6 C 85 % 11.13 C
477 28-05-2019 15:40:00 14.2 C 86 % 11.89 C
478 28-05-2019 15:45:00 14.4 C 81 % 11.18 C
479 28-05-2019 15:50:00 14.8 C 81 % 11.57 C
480 28-05-2019 15:55:00 14.9 C 80 % 11.48 C
481 28-05-2019 16:00:00 14.9 C 80 % 11.48 C
482 28-05-2019 16:05:00 15 C 81 % 11.77 C
483 28-05-2019 16:10:00 15.2 C 80 % 11.78 C
484 28-05-2019 16:15:00 15.4 C 80 % 11.97 C
485 28-05-2019 16:20:00 15.9 C 80 % 12.46 C
486 28-05-2019 16:25:00 16.1 C 75 % 11.67 C
487 28-05-2019 16:30:00 16.2 C 76 % 11.97 C
488 28-05-2019 16:35:00 16.3 C 76 % 12.07 C
489 28-05-2019 16:40:00 16.3 C 74 % 11.66 C
490 28-05-2019 16:45:00 16.2 C 74 % 11.56 C
491 28-05-2019 16:50:00 16.2 C 75 % 11.77 C
492 28-05-2019 16:55:00 16 C 70 % 10.54 C
493 28-05-2019 17:00:00 15.9 C 72 % 10.86 C
494 28-05-2019 17:05:00 15.9 C 74 % 11.28 C
495 28-05-2019 17:10:00 15.9 C 73 % 11.07 C
496 28-05-2019 17:15:00 15.9 C 73 % 11.07 C
497 28-05-2019 17:20:00 16 C 72 % 10.96 C
498 28-05-2019 17:25:00 16.2 C 75 % 11.77 C
499 28-05-2019 17:30:00 16.8 C 72 % 11.73 C
500 28-05-2019 17:35:00 17.2 C 69 % 11.47 C
Sensor: Nr:Datum:Temp:Feuchte:Taupunkt:
Aussen-T/F 501 28-05-2019 17:40:00 17.6 C 66 % 11.18 C
502 28-05-2019 17:45:00 17.9 C 67 % 11.69 C
503 28-05-2019 17:50:00 18.2 C 63 % 11.05 C
504 28-05-2019 17:55:00 18.2 C 62 % 10.81 C
505 28-05-2019 18:00:00 18.4 C 65 % 11.71 C
506 28-05-2019 18:05:00 18.3 C 60 % 10.41 C
507 28-05-2019 18:10:00 17.7 C 62 % 10.33 C
508 28-05-2019 18:15:00 17.3 C 62 % 9.96 C
509 28-05-2019 18:20:00 16.9 C 62 % 9.58 C
510 28-05-2019 18:25:00 16.4 C 66 % 10.04 C
511 28-05-2019 18:30:00 16.2 C 68 % 10.29 C
512 28-05-2019 18:35:00 16.4 C 67 % 10.26 C
513 28-05-2019 18:40:00 16.4 C 67 % 10.26 C
514 28-05-2019 18:45:00 16 C 67 % 9.88 C
515 28-05-2019 18:50:00 15.7 C 69 % 10.03 C
516 28-05-2019 18:55:00 15.7 C 70 % 10.25 C
517 28-05-2019 19:00:00 16.1 C 70 % 10.63 C
518 28-05-2019 19:05:00 16.3 C 70 % 10.82 C
519 28-05-2019 19:10:00 16.6 C 70 % 11.11 C
520 28-05-2019 19:15:00 16.8 C 67 % 10.64 C
521 28-05-2019 19:20:00 16.7 C 67 % 10.55 C
522 28-05-2019 19:25:00 16.7 C 67 % 10.55 C
523 28-05-2019 19:30:00 16.6 C 67 % 10.45 C
524 28-05-2019 19:35:00 16.3 C 65 % 9.71 C
525 28-05-2019 19:40:00 15.8 C 66 % 9.47 C
Sensor: Nr:Datum:Temp:Feuchte:Taupunkt:
Aussen-T/F 526 28-05-2019 19:45:00 15.3 C 68 % 9.43 C
527 28-05-2019 19:50:00 15 C 69 % 9.36 C
528 28-05-2019 19:55:00 14.8 C 70 % 9.39 C
529 28-05-2019 20:00:00 14.6 C 72 % 9.61 C
530 28-05-2019 20:05:00 14.5 C 74 % 9.93 C
531 28-05-2019 20:10:00 14.4 C 74 % 9.83 C
532 28-05-2019 20:15:00 14.3 C 74 % 9.73 C
533 28-05-2019 20:20:00 14.2 C 74 % 9.64 C
534 28-05-2019 20:25:00 14.1 C 76 % 9.94 C
535 28-05-2019 20:30:00 14.1 C 78 % 10.33 C
536 28-05-2019 20:35:00 13.9 C 76 % 9.74 C
537 28-05-2019 20:40:00 13.9 C 77 % 9.94 C
538 28-05-2019 20:45:00 13.8 C 79 % 10.22 C
539 28-05-2019 20:50:00 13.8 C 77 % 9.84 C
540 28-05-2019 20:55:00 13.7 C 78 % 9.94 C
541 28-05-2019 21:00:00 13.6 C 78 % 9.84 C
542 28-05-2019 21:05:00 13.5 C 79 % 9.93 C
543 28-05-2019 21:10:00 13.3 C 79 % 9.74 C
544 28-05-2019 21:15:00 13.2 C 79 % 9.64 C
545 28-05-2019 21:20:00 13.2 C 80 % 9.83 C
546 28-05-2019 21:25:00 13.1 C 81 % 9.92 C
547 28-05-2019 21:30:00 13.1 C 82 % 10.1 C
548 28-05-2019 21:35:00 13 C 82 % 10 C
549 28-05-2019 21:40:00 12.9 C 84 % 10.26 C
550 28-05-2019 21:45:00 12.9 C 85 % 10.44 C
Sensor: Nr:Datum:Temp:Feuchte:Taupunkt:
Aussen-T/F 551 28-05-2019 21:50:00 12.8 C 85 % 10.34 C
552 28-05-2019 21:55:00 12.7 C 86 % 10.42 C
553 28-05-2019 22:00:00 12.7 C 86 % 10.42 C
554 28-05-2019 22:05:00 12.6 C 86 % 10.32 C
555 28-05-2019 22:10:00 12.4 C 86 % 10.13 C
556 28-05-2019 22:15:00 12.3 C 87 % 10.2 C
557 28-05-2019 22:20:00 12.2 C 87 % 10.1 C
558 28-05-2019 22:25:00 12.1 C 87 % 10 C
559 28-05-2019 22:30:00 12 C 88 % 10.08 C
560 28-05-2019 22:35:00 11.9 C 88 % 9.98 C
561 28-05-2019 22:40:00 11.9 C 88 % 9.98 C
562 28-05-2019 22:45:00 11.9 C 89 % 10.15 C
563 28-05-2019 22:50:00 11.9 C 89 % 10.15 C
564 28-05-2019 22:55:00 11.9 C 89 % 10.15 C
565 28-05-2019 23:00:00 11.9 C 90 % 10.31 C
566 28-05-2019 23:05:00 11.9 C 90 % 10.31 C
567 28-05-2019 23:10:00 11.8 C 89 % 10.05 C
568 28-05-2019 23:15:00 11.8 C 89 % 10.05 C
569 28-05-2019 23:20:00 11.8 C 89 % 10.05 C
570 28-05-2019 23:25:00 11.8 C 89 % 10.05 C
571 28-05-2019 23:30:00 11.7 C 89 % 9.95 C
572 28-05-2019 23:35:00 11.7 C 89 % 9.95 C
573 28-05-2019 23:40:00 11.7 C 89 % 9.95 C
574 28-05-2019 23:45:00 11.7 C 88 % 9.78 C
575 28-05-2019 23:50:00 11.8 C 87 % 9.71 C
Sensor: Nr:Datum:Temp:Feuchte:Taupunkt:
Aussen-T/F 576 28-05-2019 23:55:00 11.8 C 87 % 9.71 C
577 29-05-2019 00:00:00 11.8 C 87 % 9.71 C
578 29-05-2019 00:05:00 11.7 C 86 % 9.44 C
579 29-05-2019 00:10:00 11.8 C 85 % 9.36 C
580 29-05-2019 00:15:00 11.8 C 85 % 9.36 C
581 29-05-2019 00:20:00 11.8 C 84 % 9.19 C
582 29-05-2019 00:25:00 11.8 C 85 % 9.36 C
583 29-05-2019 00:30:00 11.8 C 85 % 9.36 C
584 29-05-2019 00:35:00 11.7 C 86 % 9.44 C
585 29-05-2019 00:40:00 11.6 C 86 % 9.34 C
586 29-05-2019 00:45:00 11.6 C 87 % 9.51 C
587 29-05-2019 00:50:00 11.6 C 87 % 9.51 C
588 29-05-2019 00:55:00 11.5 C 87 % 9.41 C
589 29-05-2019 01:00:00 11.6 C 87 % 9.51 C
590 29-05-2019 01:05:00 11.6 C 87 % 9.51 C
591 29-05-2019 01:10:00 11.6 C 87 % 9.51 C
592 29-05-2019 01:15:00 11.7 C 86 % 9.44 C
593 29-05-2019 01:20:00 11.7 C 86 % 9.44 C
594 29-05-2019 01:25:00 11.8 C 87 % 9.71 C
595 29-05-2019 01:30:00 11.8 C 87 % 9.71 C
596 29-05-2019 01:35:00 11.8 C 86 % 9.54 C
597 29-05-2019 01:40:00 11.8 C 87 % 9.71 C
598 29-05-2019 01:45:00 11.8 C 86 % 9.54 C
599 29-05-2019 01:50:00 11.8 C 86 % 9.54 C
600 29-05-2019 01:55:00 11.8 C 87 % 9.71 C
Sensor: Nr:Datum:Temp:Feuchte:Taupunkt:
Aussen-T/F 601 29-05-2019 02:00:00 11.9 C 87 % 9.81 C
602 29-05-2019 02:05:00 11.9 C 87 % 9.81 C
603 29-05-2019 02:10:00 11.8 C 86 % 9.54 C
604 29-05-2019 02:15:00 11.8 C 86 % 9.54 C
605 29-05-2019 02:20:00 11.8 C 86 % 9.54 C
606 29-05-2019 02:25:00 11.9 C 86 % 9.64 C
607 29-05-2019 02:30:00 11.9 C 86 % 9.64 C
608 29-05-2019 02:35:00 11.9 C 85 % 9.46 C
609 29-05-2019 02:40:00 11.9 C 85 % 9.46 C
610 29-05-2019 02:45:00 11.9 C 85 % 9.46 C
611 29-05-2019 02:50:00 11.9 C 85 % 9.46 C
612 29-05-2019 02:55:00 11.9 C 85 % 9.46 C
613 29-05-2019 03:00:00 11.8 C 86 % 9.54 C
614 29-05-2019 03:05:00 11.8 C 86 % 9.54 C
615 29-05-2019 03:10:00 11.8 C 87 % 9.71 C
616 29-05-2019 03:15:00 11.8 C 87 % 9.71 C
617 29-05-2019 03:20:00 11.7 C 87 % 9.61 C
618 29-05-2019 03:25:00 11.7 C 88 % 9.78 C
619 29-05-2019 03:30:00 11.6 C 87 % 9.51 C
620 29-05-2019 03:35:00 11.6 C 88 % 9.68 C
621 29-05-2019 03:40:00 11.6 C 87 % 9.51 C
622 29-05-2019 03:45:00 11.5 C 87 % 9.41 C
623 29-05-2019 03:50:00 11.6 C 87 % 9.51 C
624 29-05-2019 03:55:00 11.6 C 87 % 9.51 C
625 29-05-2019 04:00:00 11.6 C 86 % 9.34 C
Sensor: Nr:Datum:Temp:Feuchte:Taupunkt:
Aussen-T/F 626 29-05-2019 04:05:00 11.6 C 86 % 9.34 C
627 29-05-2019 04:10:00 11.6 C 86 % 9.34 C
628 29-05-2019 04:15:00 11.6 C 86 % 9.34 C
629 29-05-2019 04:20:00 11.6 C 86 % 9.34 C
630 29-05-2019 04:25:00 11.5 C 86 % 9.24 C
631 29-05-2019 04:30:00 11.4 C 86 % 9.14 C
632 29-05-2019 04:35:00 11.4 C 87 % 9.32 C
633 29-05-2019 04:40:00 11.3 C 87 % 9.22 C
634 29-05-2019 04:45:00 11.3 C 87 % 9.22 C
635 29-05-2019 04:50:00 11.2 C 87 % 9.12 C
636 29-05-2019 04:55:00 11.2 C 87 % 9.12 C
637 29-05-2019 05:00:00 11.2 C 87 % 9.12 C
638 29-05-2019 05:05:00 11.2 C 87 % 9.12 C
639 29-05-2019 05:10:00 11.2 C 87 % 9.12 C
640 29-05-2019 05:15:00 11.2 C 87 % 9.12 C
641 29-05-2019 05:20:00 11.1 C 87 % 9.02 C
642 29-05-2019 05:25:00 11.1 C 87 % 9.02 C
643 29-05-2019 05:30:00 11.1 C 86 % 8.85 C
644 29-05-2019 05:35:00 11.1 C 87 % 9.02 C
645 29-05-2019 05:40:00 11 C 86 % 8.75 C
646 29-05-2019 05:45:00 11 C 86 % 8.75 C
647 29-05-2019 05:50:00 10.9 C 86 % 8.65 C
648 29-05-2019 05:55:00 10.9 C 86 % 8.65 C
649 29-05-2019 06:00:00 10.9 C 86 % 8.65 C
650 29-05-2019 06:05:00 10.9 C 87 % 8.82 C
Sensor: Nr:Datum:Temp:Feuchte:Taupunkt:
Aussen-T/F 651 29-05-2019 06:10:00 10.9 C 86 % 8.65 C
652 29-05-2019 06:15:00 10.9 C 87 % 8.82 C
653 29-05-2019 06:20:00 10.8 C 86 % 8.56 C
654 29-05-2019 06:25:00 10.8 C 87 % 8.73 C
655 29-05-2019 06:30:00 10.9 C 87 % 8.82 C
656 29-05-2019 06:35:00 10.8 C 87 % 8.73 C
657 29-05-2019 06:40:00 10.9 C 87 % 8.82 C
658 29-05-2019 06:45:00 10.9 C 86 % 8.65 C
659 29-05-2019 06:50:00 10.9 C 86 % 8.65 C
660 29-05-2019 06:55:00 10.9 C 87 % 8.82 C
661 29-05-2019 07:00:00 10.9 C 86 % 8.65 C
662 29-05-2019 07:05:00 10.9 C 86 % 8.65 C
663 29-05-2019 07:10:00 10.8 C 86 % 8.56 C
664 29-05-2019 07:15:00 10.8 C 86 % 8.56 C
665 29-05-2019 07:20:00 10.8 C 87 % 8.73 C
666 29-05-2019 07:25:00 10.8 C 87 % 8.73 C
667 29-05-2019 07:30:00 10.8 C 86 % 8.56 C
668 29-05-2019 07:35:00 10.8 C 85 % 8.38 C
669 29-05-2019 07:40:00 10.8 C 86 % 8.56 C
670 29-05-2019 07:45:00 10.8 C 86 % 8.56 C
671 29-05-2019 07:50:00 10.8 C 86 % 8.56 C
672 29-05-2019 07:55:00 10.8 C 86 % 8.56 C
673 29-05-2019 08:00:00 10.9 C 86 % 8.65 C
674 29-05-2019 08:05:00 10.9 C 85 % 8.48 C
675 29-05-2019 08:10:00 11 C 85 % 8.58 C
Sensor: Nr:Datum:Temp:Feuchte:Taupunkt:
Aussen-T/F 676 29-05-2019 08:15:00 11.1 C 85 % 8.68 C
677 29-05-2019 08:20:00 11.1 C 85 % 8.68 C
678 29-05-2019 08:25:00 11.2 C 84 % 8.6 C
679 29-05-2019 08:30:00 11.3 C 84 % 8.7 C
680 29-05-2019 08:35:00 11.3 C 83 % 8.52 C
681 29-05-2019 08:40:00 11.4 C 84 % 8.8 C
682 29-05-2019 08:45:00 11.4 C 82 % 8.44 C
683 29-05-2019 08:50:00 11.5 C 82 % 8.54 C
684 29-05-2019 08:55:00 11.6 C 83 % 8.81 C
685 29-05-2019 09:00:00 11.7 C 82 % 8.73 C
686 29-05-2019 09:05:00 11.7 C 82 % 8.73 C
687 29-05-2019 09:10:00 11.8 C 82 % 8.83 C
688 29-05-2019 09:15:00 11.9 C 81 % 8.75 C
689 29-05-2019 09:20:00 12.1 C 81 % 8.94 C
690 29-05-2019 09:25:00 12.2 C 80 % 8.86 C
691 29-05-2019 09:30:00 12.3 C 80 % 8.95 C
692 29-05-2019 09:35:00 12.4 C 79 % 8.86 C
693 29-05-2019 09:40:00 12.6 C 80 % 9.25 C
694 29-05-2019 09:45:00 12.6 C 79 % 9.06 C
695 29-05-2019 09:50:00 12.7 C 79 % 9.16 C
696 29-05-2019 09:55:00 12.7 C 79 % 9.16 C
697 29-05-2019 10:00:00 12.7 C 78 % 8.97 C
698 29-05-2019 10:05:00 12.8 C 80 % 9.44 C
699 29-05-2019 10:10:00 12.9 C 77 % 8.97 C
700 29-05-2019 10:15:00 13.2 C 73 % 8.47 C
Sensor: Nr:Datum:Temp:Feuchte:Taupunkt:
Aussen-T/F 701 29-05-2019 10:20:00 13.6 C 70 % 8.24 C
702 29-05-2019 10:25:00 13.9 C 70 % 8.53 C
703 29-05-2019 10:30:00 14.2 C 70 % 8.81 C
704 29-05-2019 10:35:00 14.3 C 68 % 8.48 C
705 29-05-2019 10:40:00 14.5 C 68 % 8.67 C
706 29-05-2019 10:45:00 14.6 C 67 % 8.55 C
707 29-05-2019 10:50:00 14.6 C 66 % 8.33 C
708 29-05-2019 10:55:00 14.7 C 66 % 8.42 C
709 29-05-2019 11:00:00 14.8 C 66 % 8.52 C
710 29-05-2019 11:05:00 14.7 C 65 % 8.2 C
711 29-05-2019 11:10:00 14.8 C 65 % 8.29 C
712 29-05-2019 11:15:00 14.8 C 66 % 8.52 C
713 29-05-2019 11:20:00 14.9 C 64 % 8.16 C
714 29-05-2019 11:25:00 15.1 C 66 % 8.8 C
715 29-05-2019 11:30:00 15.2 C 63 % 8.21 C
716 29-05-2019 11:35:00 15.3 C 63 % 8.31 C
717 29-05-2019 11:40:00 15.3 C 63 % 8.31 C
718 29-05-2019 11:45:00 15.4 C 61 % 7.93 C
719 29-05-2019 11:50:00 15.4 C 61 % 7.93 C
720 29-05-2019 11:55:00 15.4 C 62 % 8.16 C
721 29-05-2019 12:00:00 15.4 C 63 % 8.4 C
722 29-05-2019 12:05:00 15.5 C 62 % 8.26 C
723 29-05-2019 12:10:00 15.5 C 62 % 8.26 C
724 29-05-2019 12:15:00 15.5 C 61 % 8.02 C
725 29-05-2019 12:20:00 15.6 C 62 % 8.35 C
Sensor: Nr:Datum:Temp:Feuchte:Taupunkt:
Aussen-T/F 726 29-05-2019 12:25:00 15.8 C 63 % 8.78 C
727 29-05-2019 12:30:00 15.9 C 60 % 8.15 C
728 29-05-2019 12:35:00 15.9 C 60 % 8.15 C
729 29-05-2019 12:40:00 16 C 57 % 7.49 C
730 29-05-2019 12:45:00 16 C 57 % 7.49 C
731 29-05-2019 12:50:00 15.8 C 58 % 7.56 C
732 29-05-2019 12:55:00 15.8 C 56 % 7.05 C
733 29-05-2019 13:00:00 15.8 C 55 % 6.79 C
734 29-05-2019 13:05:00 15.9 C 56 % 7.14 C
735 29-05-2019 13:10:00 16.2 C 54 % 6.89 C
736 29-05-2019 13:15:00 16.3 C 55 % 7.25 C
737 29-05-2019 13:20:00 16.5 C 57 % 7.96 C
738 29-05-2019 13:25:00 16.7 C 56 % 7.89 C
739 29-05-2019 13:30:00 16.8 C 52 % 6.9 C
740 29-05-2019 13:35:00 16.8 C 56 % 7.98 C
741 29-05-2019 13:40:00 16.7 C 54 % 7.36 C
742 29-05-2019 13:45:00 16.7 C 52 % 6.81 C
743 29-05-2019 13:50:00 16.7 C 50 % 6.24 C
744 29-05-2019 13:55:00 16.7 C 52 % 6.81 C
745 29-05-2019 14:00:00 16.7 C 52 % 6.81 C
746 29-05-2019 14:05:00 16.8 C 51 % 6.62 C
747 29-05-2019 14:10:00 17.1 C 50 % 6.6 C
748 29-05-2019 14:15:00 17.3 C 49 % 6.5 C
749 29-05-2019 14:20:00 17.3 C 49 % 6.5 C
750 29-05-2019 14:25:00 17.3 C 48 % 6.2 C
Sensor: Nr:Datum:Temp:Feuchte:Taupunkt:
Aussen-T/F 751 29-05-2019 14:30:00 17.3 C 47 % 5.89 C
752 29-05-2019 14:35:00 17.5 C 51 % 7.26 C
753 29-05-2019 14:40:00 17.7 C 47 % 6.26 C
754 29-05-2019 14:45:00 17.8 C 46 % 6.04 C
755 29-05-2019 14:50:00 17.9 C 48 % 6.75 C
756 29-05-2019 14:55:00 18.2 C 43 % 5.43 C
757 29-05-2019 15:00:00 18.2 C 47 % 6.71 C
758 29-05-2019 15:05:00 18.2 C 45 % 6.08 C
759 29-05-2019 15:10:00 18.4 C 42 % 5.27 C
760 29-05-2019 15:15:00 18.5 C 46 % 6.67 C
761 29-05-2019 15:20:00 18.6 C 46 % 6.77 C
762 29-05-2019 15:25:00 18.9 C 49 % 7.96 C
763 29-05-2019 15:30:00 19.3 C 45 % 7.08 C
764 29-05-2019 15:35:00 19.4 C 42 % 6.17 C
765 29-05-2019 15:40:00 19.4 C 41 % 5.82 C
766 29-05-2019 15:45:00 19.4 C 42 % 6.17 C
767 29-05-2019 15:50:00 19.7 C 42 % 6.44 C
768 29-05-2019 15:55:00 19.9 C 41 % 6.27 C
769 29-05-2019 16:00:00 20.3 C 38 % 5.53 C
770 29-05-2019 16:05:00 20.4 C 41 % 6.72 C
771 29-05-2019 16:10:00 20.6 C 38 % 5.8 C
772 29-05-2019 16:15:00 20.5 C 41 % 6.81 C
773 29-05-2019 16:20:00 20.6 C 39 % 6.17 C
774 29-05-2019 16:25:00 20.6 C 36 % 5.02 C
775 29-05-2019 16:30:00 20.6 C 41 % 6.9 C
Sensor: Nr:Datum:Temp:Feuchte:Taupunkt:
Aussen-T/F 776 29-05-2019 16:35:00 21.1 C 39 % 6.62 C
777 29-05-2019 16:40:00 21.5 C 36 % 5.81 C
778 29-05-2019 16:45:00 21.6 C 36 % 5.9 C
779 29-05-2019 16:50:00 21.5 C 34 % 4.99 C
780 29-05-2019 16:55:00 21.7 C 36 % 5.99 C
781 29-05-2019 17:00:00 22.1 C 39 % 7.51 C
782 29-05-2019 17:05:00 22.4 C 35 % 6.2 C
783 29-05-2019 17:10:00 22.4 C 34 % 5.78 C
784 29-05-2019 17:15:00 22.3 C 34 % 5.69 C
785 29-05-2019 17:20:00 22.6 C 37 % 7.18 C
786 29-05-2019 17:25:00 22.8 C 34 % 6.13 C
787 29-05-2019 17:30:00 22.7 C 32 % 5.17 C
788 29-05-2019 17:35:00 22.7 C 36 % 6.87 C
789 29-05-2019 17:40:00 22.6 C 33 % 5.53 C
790 29-05-2019 17:45:00 22.2 C 33 % 5.18 C
791 29-05-2019 17:50:00 21.8 C 35 % 5.67 C
792 29-05-2019 17:55:00 22 C 38 % 7.04 C
793 29-05-2019 18:00:00 22.4 C 35 % 6.2 C
794 29-05-2019 18:05:00 22.3 C 36 % 6.52 C
795 29-05-2019 18:10:00 21.9 C 34 % 5.34 C
796 29-05-2019 18:15:00 21.7 C 42 % 8.24 C
797 29-05-2019 18:20:00 21.6 C 38 % 6.69 C
798 29-05-2019 18:25:00 21.8 C 36 % 6.08 C
799 29-05-2019 18:30:00 22.1 C 37 % 6.74 C
800 29-05-2019 18:35:00 22.2 C 39 % 7.6 C
Sensor: Nr:Datum:Temp:Feuchte:Taupunkt:
Aussen-T/F 801 29-05-2019 18:40:00 22.3 C 39 % 7.69 C
802 29-05-2019 18:45:00 22.3 C 39 % 7.69 C
803 29-05-2019 18:50:00 22.4 C 39 % 7.78 C
804 29-05-2019 18:55:00 22.2 C 41 % 8.33 C
805 29-05-2019 19:00:00 22.2 C 39 % 7.6 C
806 29-05-2019 19:05:00 22.4 C 39 % 7.78 C
807 29-05-2019 19:10:00 22.5 C 43 % 9.31 C
808 29-05-2019 19:15:00 22.4 C 47 % 10.54 C
809 29-05-2019 19:20:00 22.1 C 49 % 10.89 C
810 29-05-2019 19:25:00 21.7 C 51 % 11.13 C
811 29-05-2019 19:30:00 21.3 C 41 % 7.53 C
812 29-05-2019 19:35:00 21.2 C 40 % 7.08 C
813 29-05-2019 19:40:00 21.1 C 42 % 7.7 C
814 29-05-2019 19:45:00 20.8 C 43 % 7.77 C
815 29-05-2019 19:50:00 20.6 C 49 % 9.52 C
816 29-05-2019 19:55:00 20.3 C 56 % 11.24 C
817 29-05-2019 20:00:00 20 C 59 % 11.75 C
818 29-05-2019 20:05:00 19.8 C 58 % 11.3 C
819 29-05-2019 20:10:00 19.5 C 58 % 11.02 C
820 29-05-2019 20:15:00 19.3 C 60 % 11.35 C
821 29-05-2019 20:20:00 18.9 C 61 % 11.22 C
822 29-05-2019 20:25:00 18.6 C 61 % 10.94 C
823 29-05-2019 20:30:00 18.3 C 63 % 11.14 C
824 29-05-2019 20:35:00 18.2 C 64 % 11.28 C
825 29-05-2019 20:40:00 18.1 C 63 % 10.95 C
Sensor: Nr:Datum:Temp:Feuchte:Taupunkt:
Aussen-T/F 826 29-05-2019 20:45:00 17.9 C 64 % 11 C
827 29-05-2019 20:50:00 17.8 C 64 % 10.9 C
828 29-05-2019 20:55:00 17.6 C 64 % 10.72 C
829 29-05-2019 21:00:00 17.3 C 63 % 10.2 C
830 29-05-2019 21:05:00 17.1 C 62 % 9.77 C
831 29-05-2019 21:10:00 16.7 C 63 % 9.63 C
832 29-05-2019 21:15:00 16.3 C 65 % 9.71 C
833 29-05-2019 21:20:00 15.9 C 66 % 9.56 C
834 29-05-2019 21:25:00 15.6 C 65 % 9.05 C
835 29-05-2019 21:30:00 15.2 C 66 % 8.9 C
836 29-05-2019 21:35:00 14.9 C 69 % 9.27 C
837 29-05-2019 21:40:00 14.6 C 71 % 9.41 C
838 29-05-2019 21:45:00 14.3 C 72 % 9.33 C
839 29-05-2019 21:50:00 14.1 C 73 % 9.34 C
840 29-05-2019 21:55:00 13.9 C 74 % 9.35 C
841 29-05-2019 22:00:00 13.8 C 76 % 9.65 C
842 29-05-2019 22:05:00 13.6 C 76 % 9.45 C
843 29-05-2019 22:10:00 13.5 C 77 % 9.55 C
844 29-05-2019 22:15:00 13.4 C 77 % 9.45 C
845 29-05-2019 22:20:00 13.3 C 77 % 9.36 C
846 29-05-2019 22:25:00 13.2 C 77 % 9.26 C
847 29-05-2019 22:30:00 13.2 C 78 % 9.45 C
848 29-05-2019 22:35:00 13.1 C 77 % 9.16 C
849 29-05-2019 22:40:00 13.1 C 78 % 9.36 C
850 29-05-2019 22:45:00 13.1 C 79 % 9.54 C
Sensor: Nr:Datum:Temp:Feuchte:Taupunkt:
Aussen-T/F 851 29-05-2019 22:50:00 13.1 C 79 % 9.54 C
852 29-05-2019 22:55:00 13.1 C 79 % 9.54 C
853 29-05-2019 23:00:00 13 C 79 % 9.45 C
854 29-05-2019 23:05:00 13 C 79 % 9.45 C
855 29-05-2019 23:10:00 12.9 C 79 % 9.35 C
856 29-05-2019 23:15:00 13 C 79 % 9.45 C
857 29-05-2019 23:20:00 13 C 80 % 9.63 C
858 29-05-2019 23:25:00 13.1 C 80 % 9.73 C
859 29-05-2019 23:30:00 13.1 C 80 % 9.73 C
860 29-05-2019 23:35:00 13 C 79 % 9.45 C
861 29-05-2019 23:40:00 12.9 C 79 % 9.35 C
862 29-05-2019 23:45:00 12.8 C 79 % 9.25 C
863 29-05-2019 23:50:00 12.7 C 79 % 9.16 C
864 29-05-2019 23:55:00 12.5 C 79 % 8.96 C
865 30-05-2019 00:00:00 12.4 C 79 % 8.86 C
866 30-05-2019 00:05:00 12.3 C 80 % 8.95 C
867 30-05-2019 00:10:00 12.3 C 80 % 8.95 C
868 30-05-2019 00:15:00 12.2 C 80 % 8.86 C
869 30-05-2019 00:20:00 12.1 C 81 % 8.94 C
870 30-05-2019 00:25:00 12.1 C 81 % 8.94 C
871 30-05-2019 00:30:00 12 C 82 % 9.03 C
872 30-05-2019 00:35:00 11.9 C 82 % 8.93 C
873 30-05-2019 00:40:00 11.9 C 82 % 8.93 C
874 30-05-2019 00:45:00 11.9 C 83 % 9.11 C
875 30-05-2019 00:50:00 11.8 C 82 % 8.83 C
Sensor: Nr:Datum:Temp:Feuchte:Taupunkt:
Aussen-T/F 876 30-05-2019 00:55:00 11.8 C 83 % 9.01 C
877 30-05-2019 01:00:00 11.8 C 83 % 9.01 C
878 30-05-2019 01:05:00 11.7 C 84 % 9.09 C
879 30-05-2019 01:10:00 11.6 C 84 % 8.99 C
880 30-05-2019 01:15:00 11.6 C 84 % 8.99 C
881 30-05-2019 01:20:00 11.5 C 84 % 8.89 C
882 30-05-2019 01:25:00 11.4 C 84 % 8.8 C
883 30-05-2019 01:30:00 11.4 C 85 % 8.97 C
884 30-05-2019 01:35:00 11.3 C 84 % 8.7 C
885 30-05-2019 01:40:00 11.3 C 85 % 8.87 C
886 30-05-2019 01:45:00 11.3 C 85 % 8.87 C
887 30-05-2019 01:50:00 11.2 C 85 % 8.77 C
888 30-05-2019 01:55:00 11.2 C 86 % 8.95 C
889 30-05-2019 02:00:00 11.2 C 85 % 8.77 C
890 30-05-2019 02:05:00 11.1 C 86 % 8.85 C
891 30-05-2019 02:10:00 11.1 C 86 % 8.85 C
892 30-05-2019 02:15:00 11 C 86 % 8.75 C
893 30-05-2019 02:20:00 10.9 C 86 % 8.65 C
894 30-05-2019 02:25:00 10.9 C 86 % 8.65 C
895 30-05-2019 02:30:00 10.9 C 86 % 8.65 C
896 30-05-2019 02:35:00 10.8 C 86 % 8.56 C
897 30-05-2019 02:40:00 10.8 C 86 % 8.56 C
898 30-05-2019 02:45:00 10.7 C 87 % 8.63 C
899 30-05-2019 02:50:00 10.7 C 87 % 8.63 C
900 30-05-2019 02:55:00 10.5 C 87 % 8.43 C
Sensor: Nr:Datum:Temp:Feuchte:Taupunkt:
Aussen-T/F 901 30-05-2019 03:00:00 10.4 C 87 % 8.33 C
902 30-05-2019 03:05:00 10.3 C 87 % 8.23 C
903 30-05-2019 03:10:00 10.2 C 88 % 8.3 C
904 30-05-2019 03:15:00 10.1 C 88 % 8.21 C
905 30-05-2019 03:20:00 10.1 C 88 % 8.21 C
906 30-05-2019 03:25:00 9.9 C 88 % 8.01 C
907 30-05-2019 03:30:00 9.8 C 89 % 8.08 C
908 30-05-2019 03:35:00 9.8 C 89 % 8.08 C
909 30-05-2019 03:40:00 9.7 C 89 % 7.98 C
910 30-05-2019 03:45:00 9.7 C 90 % 8.14 C
911 30-05-2019 03:50:00 9.7 C 90 % 8.14 C
912 30-05-2019 03:55:00 9.7 C 90 % 8.14 C
913 30-05-2019 04:00:00 9.7 C 90 % 8.14 C
914 30-05-2019 04:05:00 9.7 C 90 % 8.14 C
915 30-05-2019 04:10:00 9.7 C 90 % 8.14 C
916 30-05-2019 04:15:00 9.7 C 90 % 8.14 C
917 30-05-2019 04:20:00 9.7 C 91 % 8.3 C
918 30-05-2019 04:25:00 9.7 C 90 % 8.14 C
919 30-05-2019 04:30:00 9.6 C 91 % 8.21 C
920 30-05-2019 04:35:00 9.6 C 91 % 8.21 C
921 30-05-2019 04:40:00 9.4 C 91 % 8.01 C
922 30-05-2019 04:45:00 9.4 C 91 % 8.01 C
923 30-05-2019 04:50:00 9.3 C 91 % 7.91 C
924 30-05-2019 04:55:00 9.3 C 91 % 7.91 C
925 30-05-2019 05:00:00 9.2 C 91 % 7.81 C
Sensor: Nr:Datum:Temp:Feuchte:Taupunkt:
Aussen-T/F 926 30-05-2019 05:05:00 9.2 C 91 % 7.81 C
927 30-05-2019 05:10:00 9.1 C 92 % 7.87 C
928 30-05-2019 05:15:00 9.1 C 92 % 7.87 C
929 30-05-2019 05:20:00 9.1 C 92 % 7.87 C
930 30-05-2019 05:25:00 9 C 92 % 7.77 C
931 30-05-2019 05:30:00 9 C 92 % 7.77 C
932 30-05-2019 05:35:00 9.1 C 92 % 7.87 C
933 30-05-2019 05:40:00 9.1 C 92 % 7.87 C
934 30-05-2019 05:45:00 9.1 C 92 % 7.87 C
935 30-05-2019 05:50:00 9.1 C 93 % 8.03 C
936 30-05-2019 05:55:00 9.1 C 93 % 8.03 C
937 30-05-2019 06:00:00 9.2 C 93 % 8.13 C
938 30-05-2019 06:05:00 9.2 C 93 % 8.13 C
939 30-05-2019 06:10:00 9.3 C 93 % 8.23 C
940 30-05-2019 06:15:00 9.4 C 94 % 8.48 C
941 30-05-2019 06:20:00 9.6 C 93 % 8.53 C
942 30-05-2019 06:25:00 9.7 C 93 % 8.62 C
943 30-05-2019 06:30:00 9.8 C 94 % 8.88 C
944 30-05-2019 06:35:00 9.8 C 94 % 8.88 C
945 30-05-2019 06:40:00 10 C 94 % 9.08 C
946 30-05-2019 06:45:00 10.1 C 94 % 9.18 C
947 30-05-2019 06:50:00 10.2 C 94 % 9.28 C
948 30-05-2019 06:55:00 10.3 C 93 % 9.22 C
949 30-05-2019 07:00:00 10.3 C 93 % 9.22 C
950 30-05-2019 07:05:00 10.4 C 93 % 9.32 C
Sensor: Nr:Datum:Temp:Feuchte:Taupunkt:
Aussen-T/F 951 30-05-2019 07:10:00 10.5 C 93 % 9.42 C
952 30-05-2019 07:15:00 10.6 C 93 % 9.52 C
953 30-05-2019 07:20:00 10.7 C 93 % 9.62 C
954 30-05-2019 07:25:00 10.8 C 92 % 9.55 C
955 30-05-2019 07:30:00 10.9 C 92 % 9.65 C
956 30-05-2019 07:35:00 11.1 C 92 % 9.85 C
957 30-05-2019 07:40:00 11.2 C 90 % 9.62 C
958 30-05-2019 07:45:00 11.3 C 89 % 9.55 C
959 30-05-2019 07:50:00 11.6 C 89 % 9.85 C
960 30-05-2019 07:55:00 11.7 C 88 % 9.78 C
961 30-05-2019 08:00:00 11.8 C 88 % 9.88 C
962 30-05-2019 08:05:00 11.8 C 87 % 9.71 C
963 30-05-2019 08:10:00 11.9 C 87 % 9.81 C
964 30-05-2019 08:15:00 12 C 87 % 9.91 C
965 30-05-2019 08:20:00 12.2 C 87 % 10.1 C
966 30-05-2019 08:25:00 12.3 C 88 % 10.37 C
967 30-05-2019 08:30:00 12.4 C 86 % 10.13 C
968 30-05-2019 08:35:00 12.6 C 86 % 10.32 C
969 30-05-2019 08:40:00 12.7 C 85 % 10.25 C
970 30-05-2019 08:45:00 12.8 C 84 % 10.17 C
971 30-05-2019 08:50:00 12.9 C 84 % 10.26 C
972 30-05-2019 08:55:00 13.1 C 82 % 10.1 C
973 30-05-2019 09:00:00 13.3 C 83 % 10.48 C
974 30-05-2019 09:05:00 13.4 C 82 % 10.39 C
975 30-05-2019 09:10:00 13.6 C 82 % 10.59 C
Sensor: Nr:Datum:Temp:Feuchte:Taupunkt:
Aussen-T/F 976 30-05-2019 09:15:00 13.7 C 82 % 10.69 C
977 30-05-2019 09:20:00 13.8 C 81 % 10.6 C
978 30-05-2019 09:25:00 13.9 C 81 % 10.7 C
979 30-05-2019 09:30:00 14.2 C 83 % 11.36 C
980 30-05-2019 09:35:00 14.4 C 82 % 11.37 C
981 30-05-2019 09:40:00 14.6 C 81 % 11.38 C
982 30-05-2019 09:45:00 14.7 C 81 % 11.48 C
983 30-05-2019 09:50:00 14.8 C 79 % 11.2 C
984 30-05-2019 09:55:00 14.9 C 80 % 11.48 C
985 30-05-2019 10:00:00 15.1 C 80 % 11.68 C
986 30-05-2019 10:05:00 15.2 C 79 % 11.59 C
987 30-05-2019 10:10:00 15.3 C 79 % 11.68 C
988 30-05-2019 10:15:00 15.6 C 78 % 11.78 C
989 30-05-2019 10:20:00 15.7 C 77 % 11.68 C
990 30-05-2019 10:25:00 15.9 C 77 % 11.88 C
991 30-05-2019 10:30:00 16 C 78 % 12.17 C
992 30-05-2019 10:35:00 16.2 C 76 % 11.97 C
993 30-05-2019 10:40:00 16.5 C 74 % 11.85 C
994 30-05-2019 10:45:00 16.8 C 75 % 12.35 C
995 30-05-2019 10:50:00 17.2 C 72 % 12.11 C
996 30-05-2019 10:55:00 17.6 C 70 % 12.07 C
997 30-05-2019 11:00:00 17.8 C 67 % 11.6 C
998 30-05-2019 11:05:00 18 C 67 % 11.79 C
999 30-05-2019 11:10:00 18.1 C 65 % 11.42 C
1000 30-05-2019 11:15:00 18.1 C 65 % 11.42 C
Sensor: Nr:Datum:Temp:Feuchte:Taupunkt:
Aussen-T/F 1001 30-05-2019 11:20:00 18.2 C 67 % 11.98 C
1002 30-05-2019 11:25:00 18.3 C 65 % 11.61 C
1003 30-05-2019 11:30:00 18.3 C 65 % 11.61 C
1004 30-05-2019 11:35:00 18.3 C 64 % 11.38 C
1005 30-05-2019 11:40:00 18.3 C 64 % 11.38 C
1006 30-05-2019 11:45:00 18.3 C 66 % 11.84 C
1007 30-05-2019 11:50:00 18.3 C 66 % 11.84 C
1008 30-05-2019 11:55:00 18.2 C 64 % 11.28 C
1009 30-05-2019 12:00:00 18.2 C 65 % 11.52 C
1010 30-05-2019 12:05:00 18.2 C 66 % 11.75 C
1011 30-05-2019 12:10:00 18.2 C 64 % 11.28 C
1012 30-05-2019 12:15:00 18.2 C 64 % 11.28 C
1013 30-05-2019 12:20:00 18.2 C 65 % 11.52 C
1014 30-05-2019 12:25:00 18.1 C 65 % 11.42 C
1015 30-05-2019 12:30:00 18.1 C 66 % 11.65 C
1016 30-05-2019 12:35:00 18.1 C 66 % 11.65 C
1017 30-05-2019 12:40:00 18.2 C 66 % 11.75 C
1018 30-05-2019 12:45:00 18.2 C 66 % 11.75 C
1019 30-05-2019 12:50:00 18.3 C 67 % 12.07 C
1020 30-05-2019 12:55:00 18.4 C 66 % 11.94 C
1021 30-05-2019 13:00:00 18.4 C 65 % 11.71 C
1022 30-05-2019 13:05:00 18.4 C 67 % 12.17 C
1023 30-05-2019 13:10:00 18.3 C 69 % 12.52 C
1024 30-05-2019 13:15:00 18.3 C 71 % 12.95 C
1025 30-05-2019 13:20:00 18.2 C 71 % 12.86 C
Sensor: Nr:Datum:Temp:Feuchte:Taupunkt:
Aussen-T/F 1026 30-05-2019 13:25:00 18.1 C 68 % 12.11 C
1027 30-05-2019 13:30:00 18.1 C 72 % 12.98 C
1028 30-05-2019 13:35:00 18.1 C 73 % 13.19 C
1029 30-05-2019 13:40:00 18.2 C 71 % 12.86 C
1030 30-05-2019 13:45:00 18.2 C 72 % 13.07 C
1031 30-05-2019 13:50:00 18.2 C 70 % 12.64 C
1032 30-05-2019 13:55:00 18.3 C 72 % 13.17 C
1033 30-05-2019 14:00:00 18.4 C 69 % 12.61 C
1034 30-05-2019 14:05:00 18.6 C 68 % 12.58 C
1035 30-05-2019 14:10:00 18.9 C 66 % 12.41 C
1036 30-05-2019 14:15:00 19.2 C 68 % 13.15 C
1037 30-05-2019 14:20:00 19.4 C 67 % 13.12 C
1038 30-05-2019 14:25:00 19.6 C 69 % 13.76 C
1039 30-05-2019 14:30:00 19.7 C 68 % 13.63 C
1040 30-05-2019 14:35:00 19.8 C 67 % 13.5 C
1041 30-05-2019 14:40:00 19.8 C 66 % 13.27 C
1042 30-05-2019 14:45:00 19.9 C 67 % 13.59 C
1043 30-05-2019 14:50:00 19.9 C 65 % 13.13 C
1044 30-05-2019 14:55:00 19.9 C 66 % 13.36 C
1045 30-05-2019 15:00:00 19.9 C 67 % 13.59 C
1046 30-05-2019 15:05:00 19.9 C 66 % 13.36 C
1047 30-05-2019 15:10:00 19.9 C 68 % 13.82 C
1048 30-05-2019 15:15:00 20.3 C 67 % 13.97 C
1049 30-05-2019 15:20:00 20.8 C 66 % 14.22 C
1050 30-05-2019 15:25:00 21.3 C 64 % 14.22 C
Sensor: Nr:Datum:Temp:Feuchte:Taupunkt:
Aussen-T/F 1051 30-05-2019 15:30:00 21.7 C 64 % 14.6 C
1052 30-05-2019 15:35:00 21.8 C 63 % 14.45 C
1053 30-05-2019 15:40:00 22 C 62 % 14.39 C
1054 30-05-2019 15:45:00 22.1 C 62 % 14.48 C
1055 30-05-2019 15:50:00 22.2 C 62 % 14.58 C
1056 30-05-2019 15:55:00 22.2 C 61 % 14.32 C
1057 30-05-2019 16:00:00 22.2 C 63 % 14.82 C
1058 30-05-2019 16:05:00 22.6 C 61 % 14.7 C
1059 30-05-2019 16:10:00 22.8 C 59 % 14.37 C
1060 30-05-2019 16:15:00 22.5 C 62 % 14.86 C
1061 30-05-2019 16:20:00 22.3 C 61 % 14.42 C
1062 30-05-2019 16:25:00 22.1 C 62 % 14.48 C
1063 30-05-2019 16:30:00 21.8 C 63 % 14.45 C
1064 30-05-2019 16:35:00 21.7 C 64 % 14.6 C
1065 30-05-2019 16:40:00 21.5 C 65 % 14.65 C
1066 30-05-2019 16:45:00 21.4 C 64 % 14.31 C
1067 30-05-2019 16:50:00 21.3 C 65 % 14.46 C
1068 30-05-2019 16:55:00 21.3 C 66 % 14.69 C
1069 30-05-2019 17:00:00 21.3 C 66 % 14.69 C
1070 30-05-2019 17:05:00 21.6 C 65 % 14.74 C
1071 30-05-2019 17:10:00 21.7 C 65 % 14.84 C
1072 30-05-2019 17:15:00 21.7 C 64 % 14.6 C
1073 30-05-2019 17:20:00 21.6 C 65 % 14.74 C
1074 30-05-2019 17:25:00 21.4 C 65 % 14.55 C
1075 30-05-2019 17:30:00 21.7 C 65 % 14.84 C
Sensor: Nr:Datum:Temp:Feuchte:Taupunkt:
Aussen-T/F 1076 30-05-2019 17:35:00 21.8 C 64 % 14.69 C
1077 30-05-2019 17:40:00 21.8 C 65 % 14.93 C
1078 30-05-2019 17:45:00 21.9 C 64 % 14.78 C
1079 30-05-2019 17:50:00 21.7 C 64 % 14.6 C
1080 30-05-2019 17:55:00 21.3 C 65 % 14.46 C
1081 30-05-2019 18:00:00 21.1 C 67 % 14.74 C
1082 30-05-2019 18:05:00 20.8 C 67 % 14.45 C
1083 30-05-2019 18:10:00 20.7 C 68 % 14.58 C
1084 30-05-2019 18:15:00 20.6 C 69 % 14.71 C
1085 30-05-2019 18:20:00 20.6 C 69 % 14.71 C
1086 30-05-2019 18:25:00 20.5 C 70 % 14.84 C
1087 30-05-2019 18:30:00 20.5 C 69 % 14.62 C
1088 30-05-2019 18:35:00 20.9 C 68 % 14.77 C
1089 30-05-2019 18:40:00 21.6 C 67 % 15.21 C
1090 30-05-2019 18:45:00 21.7 C 66 % 15.07 C
1091 30-05-2019 18:50:00 21.4 C 67 % 15.02 C
1092 30-05-2019 18:55:00 21.1 C 67 % 14.74 C
1093 30-05-2019 19:00:00 20.8 C 69 % 14.91 C
1094 30-05-2019 19:05:00 20.6 C 70 % 14.94 C
1095 30-05-2019 19:10:00 20.4 C 71 % 14.97 C
1096 30-05-2019 19:15:00 20.3 C 70 % 14.65 C
1097 30-05-2019 19:20:00 20.2 C 73 % 15.21 C
1098 30-05-2019 19:25:00 19.9 C 71 % 14.49 C
1099 30-05-2019 19:30:00 19.8 C 73 % 14.82 C
1100 30-05-2019 19:35:00 19.7 C 73 % 14.73 C
Sensor: Nr:Datum:Temp:Feuchte:Taupunkt:
Aussen-T/F 1101 30-05-2019 19:40:00 19.6 C 73 % 14.63 C
1102 30-05-2019 19:45:00 19.4 C 73 % 14.44 C
1103 30-05-2019 19:50:00 19.3 C 73 % 14.34 C
1104 30-05-2019 19:55:00 19.4 C 75 % 14.86 C
1105 30-05-2019 20:00:00 19.3 C 75 % 14.76 C
1106 30-05-2019 20:05:00 19.3 C 76 % 14.97 C
1107 30-05-2019 20:10:00 19.3 C 76 % 14.97 C
1108 30-05-2019 20:15:00 19.2 C 75 % 14.66 C
1109 30-05-2019 20:20:00 19.2 C 77 % 15.07 C
1110 30-05-2019 20:25:00 19.1 C 77 % 14.97 C
1111 30-05-2019 20:30:00 18.9 C 77 % 14.78 C
1112 30-05-2019 20:35:00 18.8 C 78 % 14.88 C
1113 30-05-2019 20:40:00 18.7 C 77 % 14.59 C
1114 30-05-2019 20:45:00 18.6 C 79 % 14.89 C
1115 30-05-2019 20:50:00 18.5 C 80 % 14.99 C
1116 30-05-2019 20:55:00 18.4 C 79 % 14.69 C
1117 30-05-2019 21:00:00 18.3 C 80 % 14.79 C
1118 30-05-2019 21:05:00 18.2 C 81 % 14.89 C
1119 30-05-2019 21:10:00 18.1 C 80 % 14.6 C
1120 30-05-2019 21:15:00 18 C 81 % 14.69 C
1121 30-05-2019 21:20:00 17.8 C 81 % 14.5 C
1122 30-05-2019 21:25:00 17.7 C 81 % 14.4 C
1123 30-05-2019 21:30:00 17.6 C 82 % 14.49 C
1124 30-05-2019 21:35:00 17.5 C 83 % 14.58 C
1125 30-05-2019 21:40:00 17.3 C 83 % 14.39 C
Sensor: Nr:Datum:Temp:Feuchte:Taupunkt:
Aussen-T/F 1126 30-05-2019 21:45:00 17.3 C 83 % 14.39 C
1127 30-05-2019 21:50:00 17.2 C 83 % 14.29 C
1128 30-05-2019 21:55:00 17.1 C 84 % 14.38 C
1129 30-05-2019 22:00:00 17 C 84 % 14.28 C
1130 30-05-2019 22:05:00 16.9 C 84 % 14.18 C
1131 30-05-2019 22:10:00 16.8 C 85 % 14.26 C
1132 30-05-2019 22:15:00 16.7 C 85 % 14.17 C
1133 30-05-2019 22:20:00 16.7 C 85 % 14.17 C
1134 30-05-2019 22:25:00 16.6 C 86 % 14.25 C
1135 30-05-2019 22:30:00 16.5 C 86 % 14.15 C
1136 30-05-2019 22:35:00 16.4 C 86 % 14.05 C
1137 30-05-2019 22:40:00 16.3 C 86 % 13.95 C
1138 30-05-2019 22:45:00 16.2 C 87 % 14.03 C
1139 30-05-2019 22:50:00 16.2 C 87 % 14.03 C
1140 30-05-2019 22:55:00 16.2 C 87 % 14.03 C
1141 30-05-2019 23:00:00 16.2 C 87 % 14.03 C
1142 30-05-2019 23:05:00 16.1 C 87 % 13.94 C
1143 30-05-2019 23:10:00 16.1 C 87 % 13.94 C
1144 30-05-2019 23:15:00 16.1 C 88 % 14.11 C
1145 30-05-2019 23:20:00 16 C 88 % 14.01 C
1146 30-05-2019 23:25:00 15.9 C 88 % 13.92 C
1147 30-05-2019 23:30:00 15.8 C 88 % 13.82 C
1148 30-05-2019 23:35:00 15.8 C 88 % 13.82 C
1149 30-05-2019 23:40:00 15.7 C 88 % 13.72 C
1150 30-05-2019 23:45:00 15.7 C 89 % 13.89 C
Sensor: Nr:Datum:Temp:Feuchte:Taupunkt:
Aussen-T/F 1151 30-05-2019 23:50:00 15.7 C 89 % 13.89 C
1152 30-05-2019 23:55:00 15.6 C 89 % 13.79 C
1153 31-05-2019 00:00:00 15.6 C 89 % 13.79 C
1154 31-05-2019 00:05:00 15.6 C 90 % 13.97 C
1155 31-05-2019 00:10:00 15.6 C 90 % 13.97 C
1156 31-05-2019 00:15:00 15.6 C 90 % 13.97 C
1157 31-05-2019 00:20:00 15.6 C 90 % 13.97 C
1158 31-05-2019 00:25:00 15.6 C 90 % 13.97 C
1159 31-05-2019 00:30:00 15.7 C 90 % 14.06 C
1160 31-05-2019 00:35:00 15.7 C 90 % 14.06 C
1161 31-05-2019 00:40:00 15.7 C 90 % 14.06 C
1162 31-05-2019 00:45:00 15.7 C 90 % 14.06 C
1163 31-05-2019 00:50:00 15.7 C 90 % 14.06 C
1164 31-05-2019 00:55:00 15.7 C 90 % 14.06 C
1165 31-05-2019 01:00:00 15.7 C 90 % 14.06 C
1166 31-05-2019 01:05:00 15.6 C 90 % 13.97 C
1167 31-05-2019 01:10:00 15.6 C 91 % 14.14 C
1168 31-05-2019 01:15:00 15.6 C 91 % 14.14 C
1169 31-05-2019 01:20:00 15.6 C 91 % 14.14 C
1170 31-05-2019 01:25:00 15.6 C 91 % 14.14 C
1171 31-05-2019 01:30:00 15.6 C 91 % 14.14 C
1172 31-05-2019 01:35:00 15.6 C 91 % 14.14 C
1173 31-05-2019 01:40:00 15.6 C 91 % 14.14 C
1174 31-05-2019 01:45:00 15.6 C 91 % 14.14 C
1175 31-05-2019 01:50:00 15.6 C 91 % 14.14 C
Sensor: Nr:Datum:Temp:Feuchte:Taupunkt:
Aussen-T/F 1176 31-05-2019 01:55:00 15.7 C 91 % 14.24 C
1177 31-05-2019 02:00:00 15.7 C 91 % 14.24 C
1178 31-05-2019 02:05:00 15.7 C 91 % 14.24 C
1179 31-05-2019 02:10:00 15.7 C 91 % 14.24 C
1180 31-05-2019 02:15:00 15.7 C 91 % 14.24 C
1181 31-05-2019 02:20:00 15.7 C 91 % 14.24 C
1182 31-05-2019 02:25:00 15.6 C 91 % 14.14 C
1183 31-05-2019 02:30:00 15.5 C 91 % 14.04 C
1184 31-05-2019 02:35:00 15.4 C 90 % 13.77 C
1185 31-05-2019 02:40:00 15.3 C 90 % 13.67 C
1186 31-05-2019 02:45:00 15.2 C 91 % 13.74 C
1187 31-05-2019 02:50:00 15.1 C 91 % 13.64 C
1188 31-05-2019 02:55:00 15 C 91 % 13.54 C
1189 31-05-2019 03:00:00 14.8 C 91 % 13.35 C
1190 31-05-2019 03:05:00 14.7 C 91 % 13.25 C
1191 31-05-2019 03:10:00 14.5 C 91 % 13.05 C
1192 31-05-2019 03:15:00 14.4 C 91 % 12.95 C
1193 31-05-2019 03:20:00 14.3 C 91 % 12.85 C
1194 31-05-2019 03:25:00 14.3 C 92 % 13.02 C
1195 31-05-2019 03:30:00 14.3 C 93 % 13.18 C
1196 31-05-2019 03:35:00 14.4 C 93 % 13.28 C
1197 31-05-2019 03:40:00 14.4 C 93 % 13.28 C
1198 31-05-2019 03:45:00 14.4 C 93 % 13.28 C
1199 31-05-2019 03:50:00 14.3 C 93 % 13.18 C
1200 31-05-2019 03:55:00 14.2 C 93 % 13.08 C
Sensor: Nr:Datum:Temp:Feuchte:Taupunkt:
Aussen-T/F 1201 31-05-2019 04:00:00 14.2 C 93 % 13.08 C
1202 31-05-2019 04:05:00 14.1 C 93 % 12.99 C
1203 31-05-2019 04:10:00 13.9 C 93 % 12.79 C
1204 31-05-2019 04:15:00 13.7 C 92 % 12.42 C
1205 31-05-2019 04:20:00 13.6 C 93 % 12.49 C
1206 31-05-2019 04:25:00 13.5 C 93 % 12.39 C
1207 31-05-2019 04:30:00 13.4 C 93 % 12.29 C
1208 31-05-2019 04:35:00 13.4 C 94 % 12.45 C
1209 31-05-2019 04:40:00 13.4 C 94 % 12.45 C
1210 31-05-2019 04:45:00 13.3 C 94 % 12.36 C
1211 31-05-2019 04:50:00 13.2 C 93 % 12.09 C
1212 31-05-2019 04:55:00 13.1 C 94 % 12.16 C
1213 31-05-2019 05:00:00 13 C 94 % 12.06 C
1214 31-05-2019 05:05:00 12.9 C 94 % 11.96 C
1215 31-05-2019 05:10:00 12.9 C 94 % 11.96 C
1216 31-05-2019 05:15:00 12.8 C 94 % 11.86 C
1217 31-05-2019 05:20:00 12.8 C 94 % 11.86 C
1218 31-05-2019 05:25:00 12.8 C 94 % 11.86 C
1219 31-05-2019 05:30:00 12.8 C 95 % 12.02 C
1220 31-05-2019 05:35:00 12.8 C 95 % 12.02 C
1221 31-05-2019 05:40:00 12.8 C 95 % 12.02 C
1222 31-05-2019 05:45:00 12.8 C 95 % 12.02 C
1223 31-05-2019 05:50:00 12.8 C 95 % 12.02 C
1224 31-05-2019 05:55:00 12.8 C 95 % 12.02 C
1225 31-05-2019 06:00:00 12.7 C 95 % 11.92 C
Sensor: Nr:Datum:Temp:Feuchte:Taupunkt:
Aussen-T/F 1226 31-05-2019 06:05:00 12.7 C 95 % 11.92 C
1227 31-05-2019 06:10:00 12.7 C 95 % 11.92 C
1228 31-05-2019 06:15:00 12.7 C 95 % 11.92 C
1229 31-05-2019 06:20:00 12.7 C 95 % 11.92 C
1230 31-05-2019 06:25:00 12.7 C 95 % 11.92 C
1231 31-05-2019 06:30:00 12.8 C 95 % 12.02 C
1232 31-05-2019 06:35:00 12.8 C 95 % 12.02 C
1233 31-05-2019 06:40:00 12.8 C 95 % 12.02 C
1234 31-05-2019 06:45:00 12.8 C 95 % 12.02 C
1235 31-05-2019 06:50:00 12.8 C 95 % 12.02 C
1236 31-05-2019 06:55:00 12.8 C 95 % 12.02 C
1237 31-05-2019 07:00:00 12.8 C 95 % 12.02 C
1238 31-05-2019 07:05:00 12.9 C 96 % 12.28 C
1239 31-05-2019 07:10:00 13 C 96 % 12.38 C
1240 31-05-2019 07:15:00 13.1 C 96 % 12.48 C
1241 31-05-2019 07:20:00 13.1 C 96 % 12.48 C
1242 31-05-2019 07:25:00 13.1 C 96 % 12.48 C
1243 31-05-2019 07:30:00 13.1 C 96 % 12.48 C
1244 31-05-2019 07:35:00 13.1 C 96 % 12.48 C
1245 31-05-2019 07:40:00 13.1 C 96 % 12.48 C
1246 31-05-2019 07:45:00 13.2 C 96 % 12.58 C
1247 31-05-2019 07:50:00 13.3 C 96 % 12.68 C
1248 31-05-2019 07:55:00 13.4 C 96 % 12.78 C
1249 31-05-2019 08:00:00 13.6 C 96 % 12.97 C
1250 31-05-2019 08:05:00 13.7 C 96 % 13.07 C
Sensor: Nr:Datum:Temp:Feuchte:Taupunkt:
Aussen-T/F 1251 31-05-2019 08:10:00 13.8 C 96 % 13.17 C
1252 31-05-2019 08:15:00 13.9 C 96 % 13.27 C
1253 31-05-2019 08:20:00 14 C 96 % 13.37 C
1254 31-05-2019 08:25:00 14.1 C 96 % 13.47 C
1255 31-05-2019 08:30:00 14.2 C 96 % 13.57 C
1256 31-05-2019 08:35:00 14.3 C 96 % 13.67 C
1257 31-05-2019 08:40:00 14.4 C 96 % 13.77 C
1258 31-05-2019 08:45:00 14.6 C 95 % 13.81 C
1259 31-05-2019 08:50:00 14.7 C 95 % 13.91 C
1260 31-05-2019 08:55:00 14.8 C 95 % 14.01 C
1261 31-05-2019 09:00:00 14.9 C 94 % 13.94 C
1262 31-05-2019 09:05:00 15.3 C 93 % 14.18 C
1263 31-05-2019 09:10:00 15.6 C 91 % 14.14 C
1264 31-05-2019 09:15:00 15.9 C 90 % 14.26 C
1265 31-05-2019 09:20:00 16.2 C 88 % 14.21 C
1266 31-05-2019 09:25:00 16.3 C 87 % 14.13 C
1267 31-05-2019 09:30:00 16.4 C 87 % 14.23 C
1268 31-05-2019 09:35:00 16.6 C 86 % 14.25 C
1269 31-05-2019 09:40:00 16.7 C 87 % 14.53 C
1270 31-05-2019 09:45:00 16.8 C 85 % 14.26 C
1271 31-05-2019 09:50:00 17 C 84 % 14.28 C
1272 31-05-2019 09:55:00 17.2 C 83 % 14.29 C
1273 31-05-2019 10:00:00 17.3 C 82 % 14.2 C
1274 31-05-2019 10:05:00 17.6 C 80 % 14.11 C
1275 31-05-2019 10:10:00 17.9 C 79 % 14.21 C
Sensor: Nr:Datum:Temp:Feuchte:Taupunkt:
Aussen-T/F 1276 31-05-2019 10:15:00 18.2 C 78 % 14.3 C
1277 31-05-2019 10:20:00 18.4 C 75 % 13.89 C
1278 31-05-2019 10:25:00 18.7 C 75 % 14.18 C
1279 31-05-2019 10:30:00 18.8 C 73 % 13.86 C
1280 31-05-2019 10:35:00 19.2 C 73 % 14.25 C
1281 31-05-2019 10:40:00 19.4 C 72 % 14.22 C
1282 31-05-2019 10:45:00 19.5 C 69 % 13.66 C
1283 31-05-2019 10:50:00 19.6 C 70 % 13.98 C
1284 31-05-2019 10:55:00 19.7 C 69 % 13.86 C
1285 31-05-2019 11:00:00 19.8 C 71 % 14.39 C
1286 31-05-2019 11:05:00 19.8 C 71 % 14.39 C
1287 31-05-2019 11:10:00 19.8 C 69 % 13.95 C
1288 31-05-2019 11:15:00 19.9 C 70 % 14.27 C
1289 31-05-2019 11:20:00 19.9 C 69 % 14.05 C
1290 31-05-2019 11:25:00 20.1 C 66 % 13.55 C
1291 31-05-2019 11:30:00 20.3 C 67 % 13.97 C
1292 31-05-2019 11:35:00 20.4 C 67 % 14.07 C
1293 31-05-2019 11:40:00 20.6 C 66 % 14.03 C
1294 31-05-2019 11:45:00 20.6 C 67 % 14.26 C
1295 31-05-2019 11:50:00 20.7 C 68 % 14.58 C
1296 31-05-2019 11:55:00 20.8 C 68 % 14.68 C
1297 31-05-2019 12:00:00 20.9 C 66 % 14.31 C
1298 31-05-2019 12:05:00 20.9 C 66 % 14.31 C
1299 31-05-2019 12:10:00 21.1 C 68 % 14.97 C
1300 31-05-2019 12:15:00 21.2 C 66 % 14.6 C
Sensor: Nr:Datum:Temp:Feuchte:Taupunkt:
Aussen-T/F 1301 31-05-2019 12:20:00 21.3 C 66 % 14.69 C
1302 31-05-2019 12:25:00 21.3 C 66 % 14.69 C
1303 31-05-2019 12:30:00 21.3 C 67 % 14.93 C
1304 31-05-2019 12:35:00 21.4 C 64 % 14.31 C
1305 31-05-2019 12:40:00 21.5 C 66 % 14.88 C
1306 31-05-2019 12:45:00 21.7 C 64 % 14.6 C
1307 31-05-2019 12:50:00 21.9 C 63 % 14.54 C
1308 31-05-2019 12:55:00 22 C 62 % 14.39 C
1309 31-05-2019 13:00:00 22 C 62 % 14.39 C
1310 31-05-2019 13:05:00 22.2 C 63 % 14.82 C
1311 31-05-2019 13:10:00 22.3 C 63 % 14.92 C
1312 31-05-2019 13:15:00 22.4 C 61 % 14.51 C
1313 31-05-2019 13:20:00 22.4 C 60 % 14.26 C
1314 31-05-2019 13:25:00 22.6 C 62 % 14.95 C
1315 31-05-2019 13:30:00 22.7 C 62 % 15.05 C
1316 31-05-2019 13:35:00 22.8 C 61 % 14.89 C
1317 31-05-2019 13:40:00 23.1 C 59 % 14.65 C
1318 31-05-2019 13:45:00 23.3 C 59 % 14.84 C
1319 31-05-2019 13:50:00 23.4 C 56 % 14.13 C
1320 31-05-2019 13:55:00 23.5 C 57 % 14.49 C
1321 31-05-2019 14:00:00 23.7 C 56 % 14.4 C
1322 31-05-2019 14:05:00 23.7 C 58 % 14.95 C
1323 31-05-2019 14:10:00 23.6 C 56 % 14.31 C
1324 31-05-2019 14:15:00 23.4 C 58 % 14.67 C
1325 31-05-2019 14:20:00 23.6 C 57 % 14.59 C
Sensor: Nr:Datum:Temp:Feuchte:Taupunkt:
Aussen-T/F 1326 31-05-2019 14:25:00 23.8 C 55 % 14.22 C
1327 31-05-2019 14:30:00 23.9 C 56 % 14.59 C
1328 31-05-2019 14:35:00 24.1 C 56 % 14.78 C
1329 31-05-2019 14:40:00 24.3 C 54 % 14.4 C
1330 31-05-2019 14:45:00 24.3 C 53 % 14.11 C
1331 31-05-2019 14:50:00 24.3 C 54 % 14.4 C
1332 31-05-2019 14:55:00 24.4 C 53 % 14.2 C
1333 31-05-2019 15:00:00 24.6 C 51 % 13.79 C
1334 31-05-2019 15:05:00 24.4 C 53 % 14.2 C
1335 31-05-2019 15:10:00 24.3 C 55 % 14.68 C
1336 31-05-2019 15:15:00 24.7 C 55 % 15.05 C
1337 31-05-2019 15:20:00 25 C 53 % 14.76 C
1338 31-05-2019 15:25:00 25.3 C 50 % 14.13 C
1339 31-05-2019 15:30:00 25.3 C 52 % 14.74 C
1340 31-05-2019 15:35:00 25 C 52 % 14.46 C
1341 31-05-2019 15:40:00 25.4 C 53 % 15.13 C
1342 31-05-2019 15:45:00 26.1 C 51 % 15.17 C
1343 31-05-2019 15:50:00 26.6 C 47 % 14.36 C
1344 31-05-2019 15:55:00 26.7 C 47 % 14.45 C
1345 31-05-2019 16:00:00 26.8 C 49 % 15.19 C
1346 31-05-2019 16:05:00 26.7 C 46 % 14.12 C
1347 31-05-2019 16:10:00 26.9 C 49 % 15.28 C
1348 31-05-2019 16:15:00 27 C 48 % 15.05 C
1349 31-05-2019 16:20:00 27.1 C 46 % 14.49 C
1350 31-05-2019 16:25:00 27.2 C 46 % 14.58 C
Sensor: Nr:Datum:Temp:Feuchte:Taupunkt:
Aussen-T/F 1351 31-05-2019 16:30:00 27.4 C 45 % 14.42 C
1352 31-05-2019 16:35:00 27.6 C 43 % 13.9 C
1353 31-05-2019 16:40:00 27.8 C 44 % 14.43 C
1354 31-05-2019 16:45:00 27.8 C 43 % 14.08 C
1355 31-05-2019 16:50:00 27.7 C 41 % 13.25 C
1356 31-05-2019 16:55:00 27.6 C 42 % 13.53 C
1357 31-05-2019 17:00:00 27.5 C 45 % 14.51 C
1358 31-05-2019 17:05:00 27.5 C 46 % 14.85 C
1359 31-05-2019 17:10:00 27.4 C 44 % 14.07 C
1360 31-05-2019 17:15:00 27.6 C 46 % 14.94 C
1361 31-05-2019 17:20:00 27.7 C 47 % 15.36 C
1362 31-05-2019 17:25:00 27.8 C 43 % 14.08 C
1363 31-05-2019 17:30:00 27.5 C 45 % 14.51 C
1364 31-05-2019 17:35:00 27.4 C 42 % 13.35 C
1365 31-05-2019 17:40:00 27.4 C 43 % 13.72 C
1366 31-05-2019 17:45:00 27.4 C 45 % 14.42 C
1367 31-05-2019 17:50:00 27.3 C 45 % 14.33 C
1368 31-05-2019 17:55:00 27.6 C 45 % 14.6 C
1369 31-05-2019 18:00:00 27.8 C 42 % 13.71 C
1370 31-05-2019 18:05:00 27.9 C 45 % 14.87 C
1371 31-05-2019 18:10:00 28.1 C 41 % 13.61 C
1372 31-05-2019 18:15:00 27.8 C 44 % 14.43 C
1373 31-05-2019 18:20:00 27.8 C 41 % 13.34 C
1374 31-05-2019 18:25:00 27.8 C 42 % 13.71 C
1375 31-05-2019 18:30:00 27.7 C 41 % 13.25 C
Sensor: Nr:Datum:Temp:Feuchte:Taupunkt:
Aussen-T/F 1376 31-05-2019 18:35:00 27.4 C 45 % 14.42 C
1377 31-05-2019 18:40:00 27.3 C 44 % 13.98 C
1378 31-05-2019 18:45:00 27.2 C 43 % 13.54 C
1379 31-05-2019 18:50:00 27.1 C 43 % 13.45 C
1380 31-05-2019 18:55:00 27.1 C 46 % 14.49 C
1381 31-05-2019 19:00:00 27.2 C 44 % 13.89 C
1382 31-05-2019 19:05:00 26.9 C 46 % 14.3 C
1383 31-05-2019 19:10:00 26.7 C 49 % 15.1 C
1384 31-05-2019 19:15:00 26.3 C 50 % 15.05 C
1385 31-05-2019 19:20:00 25.8 C 54 % 15.79 C
1386 31-05-2019 19:25:00 25.6 C 55 % 15.89 C
1387 31-05-2019 19:30:00 25.4 C 54 % 15.42 C
1388 31-05-2019 19:35:00 25.2 C 52 % 14.65 C
1389 31-05-2019 19:40:00 25.1 C 55 % 15.43 C
1390 31-05-2019 19:45:00 24.8 C 51 % 13.98 C
1391 31-05-2019 19:50:00 24.4 C 52 % 13.91 C
1392 31-05-2019 19:55:00 24.2 C 57 % 15.14 C
1393 31-05-2019 20:00:00 23.8 C 57 % 14.77 C
1394 31-05-2019 20:05:00 23.5 C 55 % 13.94 C
1395 31-05-2019 20:10:00 23.5 C 56 % 14.22 C
1396 31-05-2019 20:15:00 23.7 C 56 % 14.4 C
1397 31-05-2019 20:20:00 23.8 C 55 % 14.22 C
1398 31-05-2019 20:25:00 23.9 C 56 % 14.59 C
1399 31-05-2019 20:30:00 24 C 60 % 15.76 C
1400 31-05-2019 20:35:00 23.9 C 59 % 15.4 C
Sensor: Nr:Datum:Temp:Feuchte:Taupunkt:
Aussen-T/F 1401 31-05-2019 20:40:00 23.9 C 61 % 15.92 C
1402 31-05-2019 20:45:00 23.7 C 60 % 15.48 C
1403 31-05-2019 20:50:00 23.3 C 64 % 16.11 C
1404 31-05-2019 20:55:00 22.7 C 65 % 15.78 C
1405 31-05-2019 21:00:00 22.2 C 67 % 15.78 C
1406 31-05-2019 21:05:00 21.6 C 69 % 15.67 C
1407 31-05-2019 21:10:00 21.1 C 70 % 15.42 C
1408 31-05-2019 21:15:00 20.7 C 71 % 15.25 C
1409 31-05-2019 21:20:00 20.3 C 71 % 14.87 C
1410 31-05-2019 21:25:00 20 C 72 % 14.8 C
1411 31-05-2019 21:30:00 19.7 C 72 % 14.51 C
1412 31-05-2019 21:35:00 19.5 C 73 % 14.53 C
1413 31-05-2019 21:40:00 19.3 C 73 % 14.34 C
1414 31-05-2019 21:45:00 19.1 C 74 % 14.36 C
1415 31-05-2019 21:50:00 18.9 C 74 % 14.17 C
1416 31-05-2019 21:55:00 18.7 C 75 % 14.18 C
1417 31-05-2019 22:00:00 18.6 C 75 % 14.08 C
1418 31-05-2019 22:05:00 18.4 C 76 % 14.1 C
1419 31-05-2019 22:10:00 18.3 C 77 % 14.2 C
1420 31-05-2019 22:15:00 18.2 C 77 % 14.1 C
1421 31-05-2019 22:20:00 18 C 78 % 14.11 C
1422 31-05-2019 22:25:00 17.8 C 78 % 13.91 C
1423 31-05-2019 22:30:00 17.7 C 79 % 14.01 C
1424 31-05-2019 22:35:00 17.5 C 80 % 14.01 C
1425 31-05-2019 22:40:00 17.3 C 80 % 13.82 C
Sensor: Nr:Datum:Temp:Feuchte:Taupunkt:
Aussen-T/F 1426 31-05-2019 22:45:00 17.2 C 81 % 13.91 C
1427 31-05-2019 22:50:00 16.9 C 81 % 13.62 C
1428 31-05-2019 22:55:00 16.8 C 82 % 13.71 C
1429 31-05-2019 23:00:00 16.7 C 83 % 13.8 C
1430 31-05-2019 23:05:00 16.5 C 83 % 13.6 C
1431 31-05-2019 23:10:00 16.3 C 84 % 13.59 C
1432 31-05-2019 23:15:00 16.2 C 84 % 13.5 C
1433 31-05-2019 23:20:00 16.1 C 84 % 13.4 C
1434 31-05-2019 23:25:00 15.9 C 85 % 13.38 C
1435 31-05-2019 23:30:00 15.8 C 85 % 13.28 C
1436 31-05-2019 23:35:00 15.7 C 86 % 13.37 C
1437 31-05-2019 23:40:00 15.6 C 86 % 13.27 C
1438 31-05-2019 23:45:00 15.5 C 87 % 13.35 C
1439 31-05-2019 23:50:00 15.4 C 87 % 13.25 C
1440 31-05-2019 23:55:00 15.3 C 87 % 13.15 C
1441 01-06-2019 00:00:00 15.2 C 88 % 13.23 C
1442 01-06-2019 00:05:00 15.1 C 88 % 13.13 C
1443 01-06-2019 00:10:00 14.9 C 88 % 12.93 C
1444 01-06-2019 00:15:00 14.8 C 88 % 12.83 C
1445 01-06-2019 00:20:00 14.8 C 88 % 12.83 C
1446 01-06-2019 00:25:00 14.7 C 88 % 12.73 C
1447 01-06-2019 00:30:00 14.6 C 89 % 12.81 C
1448 01-06-2019 00:35:00 14.6 C 89 % 12.81 C
1449 01-06-2019 00:40:00 14.4 C 89 % 12.61 C
1450 01-06-2019 00:45:00 14.3 C 90 % 12.68 C
Sensor: Nr:Datum:Temp:Feuchte:Taupunkt:
Aussen-T/F 1451 01-06-2019 00:50:00 14.2 C 90 % 12.58 C
1452 01-06-2019 00:55:00 14.2 C 91 % 12.75 C
1453 01-06-2019 01:00:00 14.2 C 91 % 12.75 C
1454 01-06-2019 01:05:00 14.1 C 91 % 12.65 C
1455 01-06-2019 01:10:00 14.1 C 91 % 12.65 C
1456 01-06-2019 01:15:00 14.1 C 92 % 12.82 C
1457 01-06-2019 01:20:00 14 C 91 % 12.56 C
1458 01-06-2019 01:25:00 13.9 C 91 % 12.46 C
1459 01-06-2019 01:30:00 13.8 C 92 % 12.52 C
1460 01-06-2019 01:35:00 13.8 C 92 % 12.52 C
1461 01-06-2019 01:40:00 13.8 C 92 % 12.52 C
1462 01-06-2019 01:45:00 13.8 C 92 % 12.52 C
1463 01-06-2019 01:50:00 13.7 C 92 % 12.42 C
1464 01-06-2019 01:55:00 13.7 C 92 % 12.42 C
1465 01-06-2019 02:00:00 13.6 C 92 % 12.33 C
1466 01-06-2019 02:05:00 13.5 C 92 % 12.23 C
1467 01-06-2019 02:10:00 13.4 C 92 % 12.13 C
1468 01-06-2019 02:15:00 13.4 C 92 % 12.13 C
1469 01-06-2019 02:20:00 13.4 C 93 % 12.29 C
1470 01-06-2019 02:25:00 13.3 C 93 % 12.19 C
1471 01-06-2019 02:30:00 13.3 C 93 % 12.19 C
1472 01-06-2019 02:35:00 13.3 C 93 % 12.19 C
1473 01-06-2019 02:40:00 13.2 C 93 % 12.09 C
1474 01-06-2019 02:45:00 13.2 C 93 % 12.09 C
1475 01-06-2019 02:50:00 13.2 C 93 % 12.09 C
Sensor: Nr:Datum:Temp:Feuchte:Taupunkt:
Aussen-T/F 1476 01-06-2019 02:55:00 13.1 C 93 % 11.99 C
1477 01-06-2019 03:00:00 13.1 C 93 % 11.99 C
1478 01-06-2019 03:05:00 13.1 C 94 % 12.16 C
1479 01-06-2019 03:10:00 13.1 C 94 % 12.16 C
1480 01-06-2019 03:15:00 13.1 C 94 % 12.16 C
1481 01-06-2019 03:20:00 13 C 94 % 12.06 C
1482 01-06-2019 03:25:00 12.8 C 93 % 11.7 C
1483 01-06-2019 03:30:00 12.8 C 93 % 11.7 C
1484 01-06-2019 03:35:00 12.7 C 94 % 11.76 C
1485 01-06-2019 03:40:00 12.7 C 94 % 11.76 C
1486 01-06-2019 03:45:00 12.6 C 94 % 11.66 C
1487 01-06-2019 03:50:00 12.6 C 94 % 11.66 C
1488 01-06-2019 03:55:00 12.4 C 94 % 11.46 C
1489 01-06-2019 04:00:00 12.4 C 94 % 11.46 C
1490 01-06-2019 04:05:00 12.4 C 94 % 11.46 C
1491 01-06-2019 04:10:00 12.3 C 94 % 11.36 C
1492 01-06-2019 04:15:00 12.3 C 94 % 11.36 C
1493 01-06-2019 04:20:00 12.3 C 94 % 11.36 C
1494 01-06-2019 04:25:00 12.3 C 94 % 11.36 C
1495 01-06-2019 04:30:00 12.3 C 94 % 11.36 C
1496 01-06-2019 04:35:00 12.2 C 94 % 11.26 C
1497 01-06-2019 04:40:00 12.1 C 94 % 11.16 C
1498 01-06-2019 04:45:00 12 C 94 % 11.07 C
1499 01-06-2019 04:50:00 11.9 C 94 % 10.97 C
1500 01-06-2019 04:55:00 11.9 C 94 % 10.97 C
Sensor: Nr:Datum:Temp:Feuchte:Taupunkt:
Aussen-T/F 1501 01-06-2019 05:00:00 11.8 C 94 % 10.87 C
1502 01-06-2019 05:05:00 11.8 C 95 % 11.03 C
1503 01-06-2019 05:10:00 11.9 C 95 % 11.13 C
1504 01-06-2019 05:15:00 11.9 C 95 % 11.13 C
1505 01-06-2019 05:20:00 11.8 C 95 % 11.03 C
1506 01-06-2019 05:25:00 11.8 C 95 % 11.03 C
1507 01-06-2019 05:30:00 11.8 C 95 % 11.03 C
1508 01-06-2019 05:35:00 11.7 C 95 % 10.93 C
1509 01-06-2019 05:40:00 11.6 C 95 % 10.83 C
1510 01-06-2019 05:45:00 11.6 C 95 % 10.83 C
1511 01-06-2019 05:50:00 11.6 C 95 % 10.83 C
1512 01-06-2019 05:55:00 11.8 C 95 % 11.03 C
1513 01-06-2019 06:00:00 11.9 C 96 % 11.28 C
1514 01-06-2019 06:05:00 11.9 C 96 % 11.28 C
1515 01-06-2019 06:10:00 11.9 C 95 % 11.13 C
1516 01-06-2019 06:15:00 11.8 C 95 % 11.03 C
1517 01-06-2019 06:20:00 11.7 C 95 % 10.93 C
1518 01-06-2019 06:25:00 11.7 C 95 % 10.93 C
1519 01-06-2019 06:30:00 11.7 C 95 % 10.93 C
1520 01-06-2019 06:35:00 11.8 C 95 % 11.03 C
1521 01-06-2019 06:40:00 11.8 C 95 % 11.03 C
1522 01-06-2019 06:45:00 11.8 C 95 % 11.03 C
1523 01-06-2019 06:50:00 11.9 C 96 % 11.28 C
1524 01-06-2019 06:55:00 12 C 96 % 11.38 C
1525 01-06-2019 07:00:00 12.1 C 96 % 11.48 C
Sensor: Nr:Datum:Temp:Feuchte:Taupunkt:
Aussen-T/F 1526 01-06-2019 07:05:00 12.2 C 96 % 11.58 C
1527 01-06-2019 07:10:00 12.3 C 96 % 11.68 C
1528 01-06-2019 07:15:00 12.3 C 96 % 11.68 C
1529 01-06-2019 07:20:00 12.4 C 96 % 11.78 C
1530 01-06-2019 07:25:00 12.5 C 96 % 11.88 C
1531 01-06-2019 07:30:00 12.6 C 96 % 11.98 C
1532 01-06-2019 07:35:00 12.8 C 96 % 12.18 C
1533 01-06-2019 07:40:00 12.9 C 96 % 12.28 C
1534 01-06-2019 07:45:00 13 C 96 % 12.38 C
1535 01-06-2019 07:50:00 13.1 C 96 % 12.48 C
1536 01-06-2019 07:55:00 13.2 C 96 % 12.58 C
1537 01-06-2019 08:00:00 13.3 C 95 % 12.52 C
1538 01-06-2019 08:05:00 13.3 C 95 % 12.52 C
1539 01-06-2019 08:10:00 13.4 C 95 % 12.62 C
1540 01-06-2019 08:15:00 13.6 C 95 % 12.81 C
1541 01-06-2019 08:20:00 13.7 C 95 % 12.91 C
1542 01-06-2019 08:25:00 13.8 C 95 % 13.01 C
1543 01-06-2019 08:30:00 13.9 C 95 % 13.11 C
1544 01-06-2019 08:35:00 14.1 C 95 % 13.31 C
1545 01-06-2019 08:40:00 14.2 C 95 % 13.41 C
1546 01-06-2019 08:45:00 14.3 C 94 % 13.35 C
1547 01-06-2019 08:50:00 14.4 C 94 % 13.45 C
1548 01-06-2019 08:55:00 14.5 C 94 % 13.55 C
1549 01-06-2019 09:00:00 14.7 C 94 % 13.74 C
1550 01-06-2019 09:05:00 14.8 C 93 % 13.68 C
Sensor: Nr:Datum:Temp:Feuchte:Taupunkt:
Aussen-T/F 1551 01-06-2019 09:10:00 15.1 C 93 % 13.98 C
1552 01-06-2019 09:15:00 15.2 C 92 % 13.91 C
1553 01-06-2019 09:20:00 15.4 C 91 % 13.94 C
1554 01-06-2019 09:25:00 15.5 C 91 % 14.04 C
1555 01-06-2019 09:30:00 15.6 C 91 % 14.14 C
1556 01-06-2019 09:35:00 15.7 C 91 % 14.24 C
1557 01-06-2019 09:40:00 15.7 C 91 % 14.24 C
1558 01-06-2019 09:45:00 15.8 C 91 % 14.33 C
1559 01-06-2019 09:50:00 15.9 C 91 % 14.43 C
1560 01-06-2019 09:55:00 16 C 91 % 14.53 C
1561 01-06-2019 10:00:00 16.1 C 90 % 14.46 C
1562 01-06-2019 10:05:00 16.3 C 89 % 14.48 C
1563 01-06-2019 10:10:00 16.7 C 90 % 15.05 C
1564 01-06-2019 10:15:00 17.1 C 88 % 15.1 C
1565 01-06-2019 10:20:00 17.6 C 87 % 15.41 C
1566 01-06-2019 10:25:00 18.1 C 86 % 15.72 C
1567 01-06-2019 10:30:00 18.6 C 83 % 15.66 C
1568 01-06-2019 10:35:00 18.9 C 81 % 15.57 C
1569 01-06-2019 10:40:00 19.3 C 81 % 15.96 C
1570 01-06-2019 10:45:00 19.5 C 80 % 15.96 C
1571 01-06-2019 10:50:00 19.7 C 81 % 16.35 C
1572 01-06-2019 10:55:00 19.8 C 78 % 15.85 C
1573 01-06-2019 11:00:00 19.9 C 76 % 15.54 C
1574 01-06-2019 11:05:00 20.1 C 75 % 15.53 C
1575 01-06-2019 11:10:00 20.3 C 74 % 15.51 C
Sensor: Nr:Datum:Temp:Feuchte:Taupunkt:
Aussen-T/F 1576 01-06-2019 11:15:00 20.5 C 74 % 15.71 C
1577 01-06-2019 11:20:00 20.7 C 72 % 15.47 C
1578 01-06-2019 11:25:00 20.8 C 71 % 15.35 C
1579 01-06-2019 11:30:00 21.1 C 71 % 15.64 C
1580 01-06-2019 11:35:00 21.2 C 72 % 15.95 C
1581 01-06-2019 11:40:00 21.3 C 70 % 15.61 C
1582 01-06-2019 11:45:00 21.6 C 70 % 15.89 C
1583 01-06-2019 11:50:00 21.7 C 71 % 16.21 C
1584 01-06-2019 11:55:00 21.8 C 68 % 15.63 C
1585 01-06-2019 12:00:00 22.2 C 67 % 15.78 C
1586 01-06-2019 12:05:00 22.4 C 67 % 15.97 C
1587 01-06-2019 12:10:00 22.6 C 65 % 15.69 C
1588 01-06-2019 12:15:00 22.8 C 67 % 16.35 C
1589 01-06-2019 12:20:00 22.9 C 64 % 15.73 C
1590 01-06-2019 12:25:00 23.1 C 64 % 15.92 C
1591 01-06-2019 12:30:00 23.1 C 63 % 15.67 C
1592 01-06-2019 12:35:00 23.2 C 63 % 15.77 C
1593 01-06-2019 12:40:00 23.2 C 63 % 15.77 C
1594 01-06-2019 12:45:00 23.4 C 61 % 15.45 C
1595 01-06-2019 12:50:00 23.6 C 61 % 15.64 C
1596 01-06-2019 12:55:00 23.7 C 60 % 15.48 C
1597 01-06-2019 13:00:00 23.8 C 61 % 15.83 C
1598 01-06-2019 13:05:00 24 C 59 % 15.5 C
1599 01-06-2019 13:10:00 24.1 C 60 % 15.85 C
1600 01-06-2019 13:15:00 24.1 C 60 % 15.85 C
Sensor: Nr:Datum:Temp:Feuchte:Taupunkt:
Aussen-T/F 1601 01-06-2019 13:20:00 24.2 C 62 % 16.46 C
1602 01-06-2019 13:25:00 24.3 C 60 % 16.04 C
1603 01-06-2019 13:30:00 24.4 C 59 % 15.87 C
1604 01-06-2019 13:35:00 24.4 C 59 % 15.87 C
1605 01-06-2019 13:40:00 24.4 C 58 % 15.6 C
1606 01-06-2019 13:45:00 24.6 C 59 % 16.06 C
1607 01-06-2019 13:50:00 24.7 C 58 % 15.88 C
1608 01-06-2019 13:55:00 24.8 C 57 % 15.7 C
1609 01-06-2019 14:00:00 24.9 C 58 % 16.07 C
1610 01-06-2019 14:05:00 25.1 C 60 % 16.79 C
1611 01-06-2019 14:10:00 25.2 C 58 % 16.35 C
1612 01-06-2019 14:15:00 25.2 C 55 % 15.52 C
1613 01-06-2019 14:20:00 25.3 C 54 % 15.33 C
1614 01-06-2019 14:25:00 25.3 C 55 % 15.61 C
1615 01-06-2019 14:30:00 25.5 C 57 % 16.36 C
1616 01-06-2019 14:35:00 25.6 C 55 % 15.89 C
1617 01-06-2019 14:40:00 25.8 C 55 % 16.07 C
1618 01-06-2019 14:45:00 25.9 C 53 % 15.59 C
1619 01-06-2019 14:50:00 26.1 C 54 % 16.07 C
1620 01-06-2019 14:55:00 26.3 C 54 % 16.25 C
1621 01-06-2019 15:00:00 26.6 C 55 % 16.82 C
1622 01-06-2019 15:05:00 26.8 C 52 % 16.12 C
1623 01-06-2019 15:10:00 26.9 C 51 % 15.91 C
1624 01-06-2019 15:15:00 27.3 C 51 % 16.28 C
1625 01-06-2019 15:20:00 27.5 C 49 % 15.83 C
Sensor: Nr:Datum:Temp:Feuchte:Taupunkt:
Aussen-T/F 1626 01-06-2019 15:25:00 27.7 C 48 % 15.69 C
1627 01-06-2019 15:30:00 27.8 C 48 % 15.78 C
1628 01-06-2019 15:35:00 27.9 C 49 % 16.2 C
1629 01-06-2019 15:40:00 28.4 C 47 % 16 C
1630 01-06-2019 15:45:00 28.6 C 51 % 17.47 C
1631 01-06-2019 15:50:00 29.1 C 45 % 15.95 C
1632 01-06-2019 15:55:00 29.4 C 48 % 17.24 C
1633 01-06-2019 16:00:00 29.7 C 46 % 16.84 C
1634 01-06-2019 16:05:00 29.8 C 46 % 16.93 C
1635 01-06-2019 16:10:00 29.9 C 47 % 17.36 C
1636 01-06-2019 16:15:00 30 C 43 % 16.05 C
1637 01-06-2019 16:20:00 29.8 C 43 % 15.87 C
1638 01-06-2019 16:25:00 29.9 C 44 % 16.32 C
1639 01-06-2019 16:30:00 29.9 C 40 % 14.84 C
1640 01-06-2019 16:35:00 29.9 C 43 % 15.96 C
1641 01-06-2019 16:40:00 29.9 C 43 % 15.96 C
1642 01-06-2019 16:45:00 30.1 C 46 % 17.2 C
1643 01-06-2019 16:50:00 30.4 C 42 % 16.04 C
1644 01-06-2019 16:55:00 30.4 C 41 % 15.67 C
1645 01-06-2019 17:00:00 30.3 C 42 % 15.95 C
1646 01-06-2019 17:05:00 30.2 C 41 % 15.49 C
1647 01-06-2019 17:10:00 30.2 C 40 % 15.1 C
1648 01-06-2019 17:15:00 30.3 C 42 % 15.95 C
1649 01-06-2019 17:20:00 30.4 C 43 % 16.41 C
1650 01-06-2019 17:25:00 30.4 C 40 % 15.28 C
Sensor: Nr:Datum:Temp:Feuchte:Taupunkt:
Aussen-T/F 1651 01-06-2019 17:30:00 30.1 C 40 % 15.01 C
1652 01-06-2019 17:35:00 29.8 C 45 % 16.59 C
1653 01-06-2019 17:40:00 29.8 C 43 % 15.87 C
1654 01-06-2019 17:45:00 29.8 C 44 % 16.23 C
1655 01-06-2019 17:50:00 29.9 C 40 % 14.84 C
1656 01-06-2019 17:55:00 29.9 C 46 % 17.02 C
1657 01-06-2019 18:00:00 30.1 C 41 % 15.4 C
1658 01-06-2019 18:05:00 30.2 C 43 % 16.23 C
1659 01-06-2019 18:10:00 30.3 C 41 % 15.58 C
1660 01-06-2019 18:15:00 30.3 C 40 % 15.19 C
1661 01-06-2019 18:20:00 30.2 C 42 % 15.86 C
1662 01-06-2019 18:25:00 30.2 C 40 % 15.1 C
1663 01-06-2019 18:30:00 30.3 C 39 % 14.8 C
1664 01-06-2019 18:35:00 30.3 C 42 % 15.95 C
1665 01-06-2019 18:40:00 30.2 C 43 % 16.23 C
1666 01-06-2019 18:45:00 30.2 C 49 % 18.3 C
1667 01-06-2019 18:50:00 30.3 C 49 % 18.39 C
1668 01-06-2019 18:55:00 30.2 C 51 % 18.94 C
1669 01-06-2019 19:00:00 30.3 C 48 % 18.06 C
1670 01-06-2019 19:05:00 30.3 C 51 % 19.03 C
1671 01-06-2019 19:10:00 30.3 C 52 % 19.34 C
1672 01-06-2019 19:15:00 30.1 C 50 % 18.53 C
1673 01-06-2019 19:20:00 29.9 C 49 % 18.02 C
1674 01-06-2019 19:25:00 29.8 C 53 % 19.19 C
1675 01-06-2019 19:30:00 29.6 C 45 % 16.41 C
Sensor: Nr:Datum:Temp:Feuchte:Taupunkt:
Aussen-T/F 1676 01-06-2019 19:35:00 29.5 C 44 % 15.96 C
1677 01-06-2019 19:40:00 29.4 C 52 % 18.51 C
1678 01-06-2019 19:45:00 29.3 C 54 % 19.02 C
1679 01-06-2019 19:50:00 28.9 C 55 % 18.95 C
1680 01-06-2019 19:55:00 28.7 C 56 % 19.05 C
1681 01-06-2019 20:00:00 28.3 C 56 % 18.68 C
1682 01-06-2019 20:05:00 28.1 C 56 % 18.49 C
1683 01-06-2019 20:10:00 27.8 C 57 % 18.5 C
1684 01-06-2019 20:15:00 27.4 C 57 % 18.13 C
1685 01-06-2019 20:20:00 27.1 C 58 % 18.12 C
1686 01-06-2019 20:25:00 26.8 C 59 % 18.11 C
1687 01-06-2019 20:30:00 26.6 C 59 % 17.93 C
1688 01-06-2019 20:35:00 26.3 C 59 % 17.65 C
1689 01-06-2019 20:40:00 26 C 60 % 17.63 C
1690 01-06-2019 20:45:00 25.6 C 61 % 17.52 C
1691 01-06-2019 20:50:00 25.1 C 62 % 17.31 C
1692 01-06-2019 20:55:00 24.8 C 63 % 17.28 C
1693 01-06-2019 21:00:00 24.5 C 63 % 16.99 C
1694 01-06-2019 21:05:00 24.2 C 64 % 16.96 C
1695 01-06-2019 21:10:00 23.8 C 65 % 16.83 C
1696 01-06-2019 21:15:00 23.4 C 66 % 16.69 C
1697 01-06-2019 21:20:00 23.1 C 67 % 16.64 C
1698 01-06-2019 21:25:00 22.8 C 68 % 16.59 C
1699 01-06-2019 21:30:00 22.4 C 69 % 16.43 C
1700 01-06-2019 21:35:00 22.2 C 70 % 16.47 C
Sensor: Nr:Datum:Temp:Feuchte:Taupunkt:
Aussen-T/F 1701 01-06-2019 21:40:00 21.8 C 70 % 16.09 C
1702 01-06-2019 21:45:00 21.6 C 71 % 16.12 C
1703 01-06-2019 21:50:00 21.4 C 71 % 15.93 C
1704 01-06-2019 21:55:00 21.2 C 72 % 15.95 C
1705 01-06-2019 22:00:00 21 C 73 % 15.98 C
1706 01-06-2019 22:05:00 20.8 C 73 % 15.78 C
1707 01-06-2019 22:10:00 20.7 C 73 % 15.69 C
1708 01-06-2019 22:15:00 20.5 C 74 % 15.71 C
1709 01-06-2019 22:20:00 20.3 C 75 % 15.72 C
1710 01-06-2019 22:25:00 20.2 C 76 % 15.83 C
1711 01-06-2019 22:30:00 19.9 C 77 % 15.75 C
1712 01-06-2019 22:35:00 19.8 C 77 % 15.65 C
1713 01-06-2019 22:40:00 19.6 C 78 % 15.66 C
1714 01-06-2019 22:45:00 19.3 C 78 % 15.37 C
1715 01-06-2019 22:50:00 19.1 C 79 % 15.37 C
1716 01-06-2019 22:55:00 18.9 C 80 % 15.38 C
1717 01-06-2019 23:00:00 18.8 C 80 % 15.28 C
1718 01-06-2019 23:05:00 18.7 C 81 % 15.37 C
1719 01-06-2019 23:10:00 18.6 C 81 % 15.28 C
1720 01-06-2019 23:15:00 18.5 C 82 % 15.37 C
1721 01-06-2019 23:20:00 18.4 C 82 % 15.27 C
1722 01-06-2019 23:25:00 18.3 C 82 % 15.17 C
1723 01-06-2019 23:30:00 18.2 C 82 % 15.08 C
1724 01-06-2019 23:35:00 18.1 C 83 % 15.17 C
1725 01-06-2019 23:40:00 17.9 C 83 % 14.97 C
Sensor: Nr:Datum:Temp:Feuchte:Taupunkt:
Aussen-T/F 1726 01-06-2019 23:45:00 17.8 C 83 % 14.88 C
1727 01-06-2019 23:50:00 17.7 C 84 % 14.96 C
1728 01-06-2019 23:55:00 17.5 C 84 % 14.77 C
1729 02-06-2019 00:00:00 17.4 C 85 % 14.85 C
1730 02-06-2019 00:05:00 17.3 C 85 % 14.76 C
1731 02-06-2019 00:10:00 17.1 C 85 % 14.56 C
1732 02-06-2019 00:15:00 17 C 86 % 14.64 C
1733 02-06-2019 00:20:00 16.9 C 86 % 14.54 C
1734 02-06-2019 00:25:00 16.8 C 86 % 14.45 C
1735 02-06-2019 00:30:00 16.7 C 87 % 14.53 C
1736 02-06-2019 00:35:00 16.6 C 87 % 14.43 C
1737 02-06-2019 00:40:00 16.4 C 87 % 14.23 C
1738 02-06-2019 00:45:00 16.4 C 88 % 14.41 C
1739 02-06-2019 00:50:00 16.3 C 88 % 14.31 C
1740 02-06-2019 00:55:00 16.2 C 88 % 14.21 C
1741 02-06-2019 01:00:00 16.1 C 88 % 14.11 C
1742 02-06-2019 01:05:00 16 C 89 % 14.19 C
1743 02-06-2019 01:10:00 15.9 C 89 % 14.09 C
1744 02-06-2019 01:15:00 15.8 C 89 % 13.99 C
1745 02-06-2019 01:20:00 15.8 C 89 % 13.99 C
1746 02-06-2019 01:25:00 15.7 C 89 % 13.89 C
1747 02-06-2019 01:30:00 15.6 C 90 % 13.97 C
1748 02-06-2019 01:35:00 15.6 C 89 % 13.79 C
1749 02-06-2019 01:40:00 15.4 C 90 % 13.77 C
1750 02-06-2019 01:45:00 15.4 C 90 % 13.77 C
Sensor: Nr:Datum:Temp:Feuchte:Taupunkt:
Aussen-T/F 1751 02-06-2019 01:50:00 15.4 C 90 % 13.77 C
1752 02-06-2019 01:55:00 15.3 C 90 % 13.67 C
1753 02-06-2019 02:00:00 15.3 C 91 % 13.84 C
1754 02-06-2019 02:05:00 15.2 C 91 % 13.74 C
1755 02-06-2019 02:10:00 15.1 C 91 % 13.64 C
1756 02-06-2019 02:15:00 15.1 C 91 % 13.64 C
1757 02-06-2019 02:20:00 15 C 91 % 13.54 C
1758 02-06-2019 02:25:00 14.9 C 92 % 13.61 C
1759 02-06-2019 02:30:00 14.8 C 92 % 13.51 C
1760 02-06-2019 02:35:00 14.8 C 92 % 13.51 C
1761 02-06-2019 02:40:00 14.8 C 92 % 13.51 C
1762 02-06-2019 02:45:00 14.7 C 92 % 13.41 C
1763 02-06-2019 02:50:00 14.7 C 93 % 13.58 C
1764 02-06-2019 02:55:00 14.7 C 93 % 13.58 C
1765 02-06-2019 03:00:00 14.6 C 93 % 13.48 C
1766 02-06-2019 03:05:00 14.6 C 93 % 13.48 C
1767 02-06-2019 03:10:00 14.5 C 93 % 13.38 C
1768 02-06-2019 03:15:00 14.5 C 93 % 13.38 C
1769 02-06-2019 03:20:00 14.4 C 93 % 13.28 C
1770 02-06-2019 03:25:00 14.3 C 93 % 13.18 C
1771 02-06-2019 03:30:00 14.3 C 93 % 13.18 C
1772 02-06-2019 03:35:00 14.2 C 93 % 13.08 C
1773 02-06-2019 03:40:00 14.2 C 93 % 13.08 C
1774 02-06-2019 03:45:00 14.2 C 93 % 13.08 C
1775 02-06-2019 03:50:00 14.1 C 93 % 12.99 C
Sensor: Nr:Datum:Temp:Feuchte:Taupunkt:
Aussen-T/F 1776 02-06-2019 03:55:00 14 C 93 % 12.89 C
1777 02-06-2019 04:00:00 13.9 C 93 % 12.79 C
1778 02-06-2019 04:05:00 13.9 C 94 % 12.95 C
1779 02-06-2019 04:10:00 13.9 C 94 % 12.95 C
1780 02-06-2019 04:15:00 13.9 C 94 % 12.95 C
1781 02-06-2019 04:20:00 13.9 C 94 % 12.95 C
1782 02-06-2019 04:25:00 13.9 C 94 % 12.95 C
1783 02-06-2019 04:30:00 13.9 C 94 % 12.95 C
1784 02-06-2019 04:35:00 13.8 C 94 % 12.85 C
1785 02-06-2019 04:40:00 13.7 C 94 % 12.75 C
1786 02-06-2019 04:45:00 13.7 C 94 % 12.75 C
1787 02-06-2019 04:50:00 13.7 C 94 % 12.75 C
1788 02-06-2019 04:55:00 13.6 C 94 % 12.65 C
1789 02-06-2019 05:00:00 13.5 C 94 % 12.55 C
1790 02-06-2019 05:05:00 13.4 C 94 % 12.45 C
1791 02-06-2019 05:10:00 13.4 C 95 % 12.62 C
1792 02-06-2019 05:15:00 13.3 C 94 % 12.36 C
1793 02-06-2019 05:20:00 13.3 C 94 % 12.36 C
1794 02-06-2019 05:25:00 13.3 C 94 % 12.36 C
1795 02-06-2019 05:30:00 13.3 C 95 % 12.52 C
1796 02-06-2019 05:35:00 13.2 C 95 % 12.42 C
1797 02-06-2019 05:40:00 13.2 C 95 % 12.42 C
1798 02-06-2019 05:45:00 13.2 C 95 % 12.42 C
1799 02-06-2019 05:50:00 13.2 C 95 % 12.42 C
1800 02-06-2019 05:55:00 13.2 C 95 % 12.42 C
Sensor: Nr:Datum:Temp:Feuchte:Taupunkt:
Aussen-T/F 1801 02-06-2019 06:00:00 13.1 C 95 % 12.32 C
1802 02-06-2019 06:05:00 13.2 C 95 % 12.42 C
1803 02-06-2019 06:10:00 13.3 C 96 % 12.68 C
1804 02-06-2019 06:15:00 13.4 C 95 % 12.62 C
1805 02-06-2019 06:20:00 13.4 C 95 % 12.62 C
1806 02-06-2019 06:25:00 13.3 C 95 % 12.52 C
1807 02-06-2019 06:30:00 13.4 C 95 % 12.62 C
1808 02-06-2019 06:35:00 13.4 C 95 % 12.62 C
1809 02-06-2019 06:40:00 13.6 C 96 % 12.97 C
1810 02-06-2019 06:45:00 13.6 C 96 % 12.97 C
1811 02-06-2019 06:50:00 13.6 C 96 % 12.97 C
1812 02-06-2019 06:55:00 13.6 C 95 % 12.81 C
1813 02-06-2019 07:00:00 13.6 C 95 % 12.81 C
1814 02-06-2019 07:05:00 13.7 C 96 % 13.07 C
1815 02-06-2019 07:10:00 13.8 C 96 % 13.17 C
1816 02-06-2019 07:15:00 13.8 C 96 % 13.17 C
1817 02-06-2019 07:20:00 13.8 C 96 % 13.17 C
1818 02-06-2019 07:25:00 13.9 C 96 % 13.27 C
1819 02-06-2019 07:30:00 13.9 C 96 % 13.27 C
1820 02-06-2019 07:35:00 14.1 C 96 % 13.47 C
1821 02-06-2019 07:40:00 14.1 C 96 % 13.47 C
1822 02-06-2019 07:45:00 14.2 C 96 % 13.57 C
1823 02-06-2019 07:50:00 14.3 C 96 % 13.67 C
1824 02-06-2019 07:55:00 14.3 C 96 % 13.67 C
1825 02-06-2019 08:00:00 14.4 C 96 % 13.77 C
Sensor: Nr:Datum:Temp:Feuchte:Taupunkt:
Aussen-T/F 1826 02-06-2019 08:05:00 14.6 C 96 % 13.97 C
1827 02-06-2019 08:10:00 14.6 C 96 % 13.97 C
1828 02-06-2019 08:15:00 14.8 C 96 % 14.17 C
1829 02-06-2019 08:20:00 14.9 C 96 % 14.27 C
1830 02-06-2019 08:25:00 15 C 96 % 14.37 C
1831 02-06-2019 08:30:00 15.1 C 96 % 14.47 C
1832 02-06-2019 08:35:00 15.2 C 96 % 14.57 C
1833 02-06-2019 08:40:00 15.3 C 96 % 14.67 C
1834 02-06-2019 08:45:00 15.4 C 96 % 14.77 C
1835 02-06-2019 08:50:00 15.5 C 96 % 14.86 C
1836 02-06-2019 08:55:00 15.6 C 96 % 14.96 C
1837 02-06-2019 09:00:00 15.8 C 96 % 15.16 C
1838 02-06-2019 09:05:00 15.9 C 97 % 15.42 C
1839 02-06-2019 09:10:00 16.1 C 96 % 15.46 C
1840 02-06-2019 09:15:00 16.3 C 97 % 15.82 C
1841 02-06-2019 09:20:00 16.4 C 96 % 15.76 C
1842 02-06-2019 09:25:00 16.6 C 96 % 15.96 C
1843 02-06-2019 09:30:00 16.7 C 96 % 16.06 C
1844 02-06-2019 09:35:00 16.8 C 96 % 16.16 C
1845 02-06-2019 09:40:00 16.9 C 96 % 16.26 C
1846 02-06-2019 09:45:00 17.1 C 95 % 16.29 C
1847 02-06-2019 09:50:00 17.3 C 95 % 16.49 C
1848 02-06-2019 09:55:00 17.4 C 95 % 16.59 C
1849 02-06-2019 10:00:00 17.6 C 95 % 16.79 C
1850 02-06-2019 10:05:00 17.8 C 94 % 16.82 C
Sensor: Nr:Datum:Temp:Feuchte:Taupunkt:
Aussen-T/F 1851 02-06-2019 10:10:00 18.1 C 94 % 17.12 C
1852 02-06-2019 10:15:00 18.4 C 93 % 17.25 C
1853 02-06-2019 10:20:00 18.8 C 92 % 17.47 C
1854 02-06-2019 10:25:00 19.2 C 91 % 17.69 C
1855 02-06-2019 10:30:00 19.8 C 89 % 17.93 C
1856 02-06-2019 10:35:00 20.3 C 88 % 18.25 C
1857 02-06-2019 10:40:00 20.9 C 85 % 18.28 C
1858 02-06-2019 10:45:00 21.3 C 82 % 18.1 C
1859 02-06-2019 10:50:00 21.7 C 82 % 18.49 C
1860 02-06-2019 10:55:00 21.8 C 79 % 18 C
1861 02-06-2019 11:00:00 22 C 81 % 18.59 C
1862 02-06-2019 11:05:00 22.1 C 82 % 18.88 C
1863 02-06-2019 11:10:00 22.2 C 80 % 18.58 C
1864 02-06-2019 11:15:00 22.4 C 80 % 18.78 C
1865 02-06-2019 11:20:00 22.8 C 81 % 19.37 C
1866 02-06-2019 11:25:00 22.9 C 81 % 19.46 C
1867 02-06-2019 11:30:00 23.1 C 81 % 19.66 C
1868 02-06-2019 11:35:00 23.2 C 76 % 18.73 C
1869 02-06-2019 11:40:00 23.6 C 73 % 18.48 C
1870 02-06-2019 11:45:00 23.9 C 72 % 18.54 C
1871 02-06-2019 11:50:00 24.4 C 69 % 18.34 C
1872 02-06-2019 11:55:00 24.8 C 70 % 18.95 C
1873 02-06-2019 12:00:00 25.3 C 64 % 18 C
1874 02-06-2019 12:05:00 25.8 C 62 % 17.97 C
1875 02-06-2019 12:10:00 26 C 61 % 17.9 C
Sensor: Nr:Datum:Temp:Feuchte:Taupunkt:
Aussen-T/F 1876 02-06-2019 12:15:00 26.2 C 59 % 17.55 C
1877 02-06-2019 12:20:00 26.4 C 59 % 17.74 C
1878 02-06-2019 12:25:00 26.7 C 58 % 17.75 C
1879 02-06-2019 12:30:00 27 C 60 % 18.57 C
1880 02-06-2019 12:35:00 27.2 C 56 % 17.66 C
1881 02-06-2019 12:40:00 27.3 C 56 % 17.75 C
1882 02-06-2019 12:45:00 27.3 C 54 % 17.18 C
1883 02-06-2019 12:50:00 27.3 C 53 % 16.88 C
1884 02-06-2019 12:55:00 27.5 C 52 % 16.76 C
1885 02-06-2019 13:00:00 27.7 C 51 % 16.64 C
1886 02-06-2019 13:05:00 27.7 C 51 % 16.64 C
1887 02-06-2019 13:10:00 27.8 C 46 % 15.12 C
1888 02-06-2019 13:15:00 27.8 C 50 % 16.42 C
1889 02-06-2019 13:20:00 27.8 C 48 % 15.78 C
1890 02-06-2019 13:25:00 27.9 C 45 % 14.87 C
1891 02-06-2019 13:30:00 28.1 C 45 % 15.05 C
1892 02-06-2019 13:35:00 28.1 C 44 % 14.7 C
1893 02-06-2019 13:40:00 28.1 C 45 % 15.05 C
1894 02-06-2019 13:45:00 28.1 C 44 % 14.7 C
1895 02-06-2019 13:50:00 28.2 C 43 % 14.44 C
1896 02-06-2019 13:55:00 28.3 C 44 % 14.88 C
1897 02-06-2019 14:00:00 28.6 C 43 % 14.8 C
1898 02-06-2019 14:05:00 28.6 C 45 % 15.5 C
1899 02-06-2019 14:10:00 28.8 C 45 % 15.68 C
1900 02-06-2019 14:15:00 28.9 C 47 % 16.45 C
Sensor: Nr:Datum:Temp:Feuchte:Taupunkt:
Aussen-T/F 1901 02-06-2019 14:20:00 29.1 C 47 % 16.64 C
1902 02-06-2019 14:25:00 29.1 C 46 % 16.3 C
1903 02-06-2019 14:30:00 29.2 C 47 % 16.73 C
1904 02-06-2019 14:35:00 29.2 C 46 % 16.39 C
1905 02-06-2019 14:40:00 29.2 C 45 % 16.04 C
1906 02-06-2019 14:45:00 29.3 C 46 % 16.48 C
1907 02-06-2019 14:50:00 29.5 C 44 % 15.96 C
1908 02-06-2019 14:55:00 29.7 C 46 % 16.84 C
1909 02-06-2019 15:00:00 29.8 C 45 % 16.59 C
1910 02-06-2019 15:05:00 30 C 44 % 16.41 C
1911 02-06-2019 15:10:00 30.3 C 45 % 17.04 C
1912 02-06-2019 15:15:00 30.4 C 44 % 16.77 C
1913 02-06-2019 15:20:00 30.6 C 43 % 16.59 C
1914 02-06-2019 15:25:00 30.8 C 45 % 17.49 C
1915 02-06-2019 15:30:00 31.2 C 44 % 17.49 C
1916 02-06-2019 15:35:00 31.4 C 41 % 16.56 C
1917 02-06-2019 15:40:00 31.7 C 41 % 16.83 C
1918 02-06-2019 15:45:00 31.9 C 38 % 15.81 C
1919 02-06-2019 15:50:00 32.2 C 42 % 17.65 C
1920 02-06-2019 15:55:00 32.2 C 37 % 15.66 C
1921 02-06-2019 16:00:00 32.4 C 40 % 17.06 C
1922 02-06-2019 16:05:00 32.6 C 37 % 16.01 C
1923 02-06-2019 16:10:00 32.7 C 38 % 16.52 C
1924 02-06-2019 16:15:00 32.9 C 36 % 15.85 C
1925 02-06-2019 16:20:00 32.9 C 35 % 15.41 C
Sensor: Nr:Datum:Temp:Feuchte:Taupunkt:
Aussen-T/F 1926 02-06-2019 16:25:00 32.9 C 36 % 15.85 C
1927 02-06-2019 16:30:00 32.8 C 35 % 15.32 C
1928 02-06-2019 16:35:00 32.8 C 37 % 16.19 C
1929 02-06-2019 16:40:00 32.6 C 39 % 16.84 C
1930 02-06-2019 16:45:00 32.7 C 38 % 16.52 C
1931 02-06-2019 16:50:00 32.9 C 39 % 17.11 C
1932 02-06-2019 16:55:00 33 C 37 % 16.36 C
1933 02-06-2019 17:00:00 33.1 C 36 % 16.02 C
1934 02-06-2019 17:05:00 33.1 C 38 % 16.87 C
1935 02-06-2019 17:10:00 32.7 C 38 % 16.52 C
1936 02-06-2019 17:15:00 32.9 C 38 % 16.7 C
1937 02-06-2019 17:20:00 33.2 C 38 % 16.96 C
1938 02-06-2019 17:25:00 33.3 C 36 % 16.2 C
1939 02-06-2019 17:30:00 33.4 C 35 % 15.85 C
1940 02-06-2019 17:35:00 33.2 C 38 % 16.96 C
1941 02-06-2019 17:40:00 33.1 C 36 % 16.02 C
1942 02-06-2019 17:45:00 33.3 C 41 % 18.25 C
1943 02-06-2019 17:50:00 33.2 C 36 % 16.11 C
1944 02-06-2019 17:55:00 32.7 C 37 % 16.1 C
1945 02-06-2019 18:00:00 32.5 C 36 % 15.5 C
1946 02-06-2019 18:05:00 32.8 C 38 % 16.61 C
1947 02-06-2019 18:10:00 33.2 C 42 % 18.55 C
1948 02-06-2019 18:15:00 33.2 C 36 % 16.11 C
1949 02-06-2019 18:20:00 33.2 C 35 % 15.67 C
1950 02-06-2019 18:25:00 33.2 C 37 % 16.54 C
Sensor: Nr:Datum:Temp:Feuchte:Taupunkt:
Aussen-T/F 1951 02-06-2019 18:30:00 33.2 C 37 % 16.54 C
1952 02-06-2019 18:35:00 33.1 C 38 % 16.87 C
1953 02-06-2019 18:40:00 32.9 C 39 % 17.11 C
1954 02-06-2019 18:45:00 32.8 C 39 % 17.02 C
1955 02-06-2019 18:50:00 32.9 C 43 % 18.66 C
1956 02-06-2019 18:55:00 33 C 35 % 15.5 C
1957 02-06-2019 19:00:00 33 C 35 % 15.5 C
1958 02-06-2019 19:05:00 33 C 39 % 17.19 C
1959 02-06-2019 19:10:00 33.1 C 39 % 17.28 C
1960 02-06-2019 19:15:00 33.1 C 38 % 16.87 C
1961 02-06-2019 19:20:00 32.9 C 36 % 15.85 C
1962 02-06-2019 19:25:00 32.7 C 34 % 14.78 C
1963 02-06-2019 19:30:00 32.2 C 42 % 17.65 C
1964 02-06-2019 19:35:00 31.8 C 36 % 14.88 C
1965 02-06-2019 19:40:00 31.6 C 44 % 17.85 C
1966 02-06-2019 19:45:00 31.3 C 45 % 17.94 C
1967 02-06-2019 19:50:00 31.2 C 45 % 17.85 C
1968 02-06-2019 19:55:00 30.9 C 47 % 18.27 C
1969 02-06-2019 20:00:00 30.7 C 46 % 17.75 C
1970 02-06-2019 20:05:00 30.4 C 47 % 17.82 C
1971 02-06-2019 20:10:00 30 C 47 % 17.45 C
1972 02-06-2019 20:15:00 29.7 C 48 % 17.51 C
1973 02-06-2019 20:20:00 29.3 C 48 % 17.15 C
1974 02-06-2019 20:25:00 28.8 C 49 % 17.02 C
1975 02-06-2019 20:30:00 28.5 C 50 % 17.06 C
Sensor: Nr:Datum:Temp:Feuchte:Taupunkt:
Aussen-T/F 1976 02-06-2019 20:35:00 28.2 C 50 % 16.79 C
1977 02-06-2019 20:40:00 27.8 C 51 % 16.73 C
1978 02-06-2019 20:45:00 27.4 C 52 % 16.67 C
1979 02-06-2019 20:50:00 27 C 53 % 16.6 C
1980 02-06-2019 20:55:00 26.6 C 53 % 16.23 C
1981 02-06-2019 21:00:00 26.2 C 53 % 15.87 C
1982 02-06-2019 21:05:00 25.8 C 55 % 16.07 C
1983 02-06-2019 21:10:00 25.4 C 56 % 15.99 C
1984 02-06-2019 21:15:00 25.1 C 56 % 15.71 C
1985 02-06-2019 21:20:00 24.7 C 57 % 15.61 C
1986 02-06-2019 21:25:00 24.4 C 58 % 15.6 C
1987 02-06-2019 21:30:00 24.2 C 59 % 15.68 C
1988 02-06-2019 21:35:00 23.9 C 59 % 15.4 C
1989 02-06-2019 21:40:00 23.6 C 60 % 15.38 C
1990 02-06-2019 21:45:00 23.3 C 61 % 15.36 C
1991 02-06-2019 21:50:00 23.1 C 62 % 15.42 C
1992 02-06-2019 21:55:00 22.8 C 64 % 15.64 C
1993 02-06-2019 22:00:00 22.5 C 65 % 15.59 C
1994 02-06-2019 22:05:00 22.2 C 66 % 15.55 C
1995 02-06-2019 22:10:00 21.8 C 67 % 15.4 C
1996 02-06-2019 22:15:00 21.6 C 68 % 15.44 C
1997 02-06-2019 22:20:00 21.4 C 68 % 15.25 C
1998 02-06-2019 22:25:00 21.3 C 68 % 15.16 C
1999 02-06-2019 22:30:00 21.2 C 68 % 15.06 C
2000 02-06-2019 22:35:00 21.1 C 69 % 15.19 C
Sensor: Nr:Datum:Temp:Feuchte:Taupunkt:
Aussen-T/F 2001 02-06-2019 22:40:00 21 C 68 % 14.87 C
2002 02-06-2019 22:45:00 20.9 C 69 % 15 C
2003 02-06-2019 22:50:00 20.7 C 69 % 14.81 C
2004 02-06-2019 22:55:00 20.6 C 70 % 14.94 C
2005 02-06-2019 23:00:00 20.4 C 71 % 14.97 C
2006 02-06-2019 23:05:00 20.3 C 72 % 15.09 C
2007 02-06-2019 23:10:00 20 C 74 % 15.23 C
2008 02-06-2019 23:15:00 19.7 C 74 % 14.94 C
2009 02-06-2019 23:20:00 19.4 C 73 % 14.44 C
2010 02-06-2019 23:25:00 19.3 C 74 % 14.55 C
2011 02-06-2019 23:30:00 19.1 C 76 % 14.77 C
2012 02-06-2019 23:35:00 19 C 76 % 14.68 C
2013 02-06-2019 23:40:00 18.8 C 77 % 14.68 C
2014 02-06-2019 23:45:00 18.7 C 77 % 14.59 C
2015 02-06-2019 23:50:00 18.6 C 77 % 14.49 C
2016 02-06-2019 23:55:00 18.4 C 77 % 14.3 C

Legende:
   Min
   Max


Maximal/Minimal-Werte vom 27.05.2019 - 02.06.2019

Sensor Min Max Avg
Temp
(Aussen-T/F)
9 °C
30-05-2019  05:25:00
33.4 °C
02-06-2019  17:30:00
17.27 °C
Feuchte
(Aussen-T/F)
32 %
29-05-2019  17:30:00
97 %
28-05-2019  02:05:00
77.4 %
Taupunkt
(Aussen-T/F)
4.99 C
29-05-2019  16:50:00
19.66 C
02-06-2019  11:30:00
12.68 C

Die Daten stammen von einer Davis Vantage Pro 2 Wetter-Station und werden unter Linux mit der Software wview2wettercgi und aufbereitet. Alle Angaben erfolgen ohne Gewähr für ihre Vollständigkeit oder Richtigkeit.
Kontakt: Rainer Krienke krienke@uni-koblenz.de . Meine Webseiten an der Uni Koblenz oder privat.
Version: $Revision: 0.78 $